<- Previous Day | Today | Next Day ->

All Data for 24 October 2021

 

Time A - D Temp A - D Dew Point A - D Humidity A - D Pressure A - D Wind A - D Wind Dir Gust A - D Rain Rate A - D Rain Total
00:00 12.1 9.3 83 1017.2 18.3 SSE 25.1 0.0 0.0
00:01 12.1 9.3 83 1017.0 18.3 SSE 25.1 0.0 0.0
00:02 12.1 9.3 83 1017.2 18.3 SW 25.1 0.0 0.0
00:03 12.1 9.3 83 1017.1 18.3 SW 25.1 0.0 0.0
00:04 12.1 9.3 83 1017.2 22.8 SW 23.5 0.0 0.0
00:05 12.1 9.3 83 1017.0 18.3 S 23.5 0.0 0.0
00:06 12.0 9.2 83 1017.1 21.3 S 23.5 0.0 0.0
00:07 12.0 9.2 83 1017.0 21.3 S 23.5 0.0 0.0
00:08 12.0 9.2 83 1016.9 21.3 S 23.5 0.0 0.0
00:09 12.0 9.2 83 1017.0 21.3 SE 23.5 0.0 0.0
00:10 12.0 9.2 83 1017.0 20.6 SE 23.5 0.0 0.0
00:11 12.0 9.2 83 1017.0 25.9 S 25.9 0.0 0.0
00:12 12.0 9.2 83 1017.0 25.9 S 25.9 0.0 0.0
00:13 12.0 9.2 83 1017.0 15.2 S 25.9 0.0 0.0
00:14 12.0 9.2 83 1017.0 15.2 S 25.9 0.0 0.0
00:15 12.0 9.2 83 1016.8 16.8 SSW 25.9 0.0 0.0
00:16 12.0 9.2 83 1016.9 22.1 SW 25.9 0.0 0.0
00:17 12.0 9.2 83 1016.7 22.1 SW 25.9 0.0 0.0
00:18 12.0 9.2 83 1016.9 20.6 S 25.9 0.0 0.0
00:19 12.0 9.2 83 1016.9 20.6 S 25.9 0.0 0.0
00:20 12.0 9.2 83 1017.0 14.5 S 25.9 0.0 0.0
00:21 12.0 9.2 83 1016.8 14.5 S 25.9 0.0 0.0
00:22 12.0 9.2 83 1016.8 19.7 SE 25.9 0.0 0.0
00:23 12.0 9.2 83 1016.9 22.1 S 25.9 0.0 0.0
00:24 12.0 9.2 83 1016.8 22.1 S 22.1 0.0 0.0
00:25 12.0 9.2 83 1016.8 20.6 S 22.1 0.0 0.0
00:26 12.0 9.2 83 1017.0 19.7 S 22.1 0.0 0.0
00:27 12.0 9.2 83 1016.8 19.7 S 22.1 0.0 0.0
00:28 12.0 9.2 83 1016.9 16.8 S 22.1 0.0 0.0
00:29 12.0 9.2 83 1016.7 19.0 S 22.1 0.0 0.0
00:30 12.0 9.2 83 1016.8 19.0 S 22.1 0.0 0.0
00:31 12.0 9.4 84 1016.8 22.1 S 22.1 0.0 0.0
00:32 12.1 9.5 84 1016.8 18.3 S 22.1 0.0 0.0
00:33 12.1 9.5 84 1016.8 18.3 S 22.1 0.0 0.0
00:34 12.1 9.5 84 1016.5 19.0 SW 22.1 0.0 0.0
00:35 12.1 9.5 84 1016.7 19.0 SW 22.1 0.0 0.0
00:36 12.1 9.5 84 1016.6 19.0 S 22.1 0.0 0.0
00:37 12.1 9.5 84 1016.8 20.6 S 22.1 0.0 0.0
00:38 12.1 9.5 84 1016.7 21.3 S 22.1 0.0 0.0
00:39 12.1 9.5 84 1016.7 19.0 SE 22.1 0.0 0.0
00:40 12.1 9.5 84 1016.8 26.6 S 26.6 0.0 0.0
00:41 12.1 9.5 84 1016.8 26.6 S 26.6 0.0 0.0
00:42 12.1 9.3 83 1016.5 24.4 S 26.6 0.0 0.0
00:43 12.1 9.3 83 1016.6 24.4 S 26.6 0.0 0.0
00:44 12.1 9.3 83 1016.5 15.9 S 26.6 0.0 0.0
00:45 12.1 9.3 83 1016.4 15.9 S 26.6 0.0 0.0
00:46 12.1 9.3 83 1016.5 15.9 S 26.6 0.0 0.0
00:47 12.1 9.3 83 1016.9 15.9 S 26.6 0.0 0.0
00:48 12.1 9.3 83 1016.4 15.9 S 26.6 0.0 0.0
00:49 12.1 9.3 83 1016.6 16.8 S 26.6 0.0 0.0
00:50 12.1 9.3 83 1016.6 19.0 S 26.6 0.0 0.0
00:51 12.1 9.3 83 1016.6 19.0 S 26.6 0.0 0.0
00:52 12.1 9.3 83 1016.7 18.3 S 24.4 0.0 0.0
00:53 12.1 9.3 83 1016.5 16.8 SSW 24.4 0.0 0.0
00:54 12.1 9.3 83 1016.5 17.4 SW 20.6 0.0 0.0
00:55 12.1 9.3 83 1016.6 21.3 S 21.3 0.0 0.0
00:56 12.1 9.3 83 1016.7 17.4 SW 21.3 0.0 0.0
00:57 12.1 9.3 83 1016.6 17.4 SW 21.3 0.0 0.0
00:58 12.1 9.3 83 1016.8 21.3 S 21.3 0.0 0.0
00:59 12.1 9.3 83 1016.5 19.0 S 21.3 0.0 0.0
01:00 12.1 9.3 83 1016.8 21.3 S 21.3 0.0 0.0
01:01 12.1 9.3 83 1016.6 21.3 S 21.3 0.0 0.0
01:02 12.1 9.3 83 1016.4 21.3 S 21.3 0.0 0.0
01:03 12.1 9.3 83 1016.6 21.3 S 21.3 0.0 0.0
01:04 12.1 9.3 83 1016.6 21.3 S 21.3 0.0 0.0
01:05 12.1 9.3 83 1016.5 21.3 S 21.3 0.0 0.0
01:06 12.1 9.3 83 1016.6 21.3 S 21.3 0.0 0.0
01:07 12.2 9.4 83 1016.6 15.9 SW 21.3 0.0 0.0
01:08 12.2 9.4 83 1016.6 19.0 S 21.3 0.0 0.0
01:09 12.2 9.4 83 1016.5 19.0 SE 21.3 0.0 0.0
01:10 12.2 9.4 83 1016.6 18.3 SE 21.3 0.0 0.0
01:11 12.2 9.4 83 1016.6 19.7 S 21.3 0.0 0.0
01:12 12.2 9.4 83 1016.5 17.4 SE 21.3 0.0 0.0
01:13 12.2 9.4 83 1016.5 17.4 SW 21.3 0.0 0.0
01:14 12.2 9.4 83 1016.6 24.4 S 24.4 0.0 0.0
01:15 12.2 9.4 83 1016.5 20.6 SW 24.4 0.0 0.0
01:16 12.2 9.4 83 1016.4 19.0 SSE 24.4 0.0 0.0
01:17 12.2 9.4 83 1016.3 16.8 S 24.4 0.0 0.0
01:18 12.2 9.4 83 1016.5 15.9 SE 24.4 0.0 0.0
01:19 12.2 9.4 83 1016.5 13.6 S 24.4 0.0 0.0
01:20 12.2 9.4 83 1016.4 14.5 SSE 24.4 0.0 0.0
01:21 12.1 9.3 83 1016.4 17.4 S 24.4 0.0 0.0
01:22 12.1 9.3 83 1016.7 19.7 S 24.4 0.0 0.0
01:23 12.1 9.5 84 1016.5 18.3 S 24.4 0.0 0.0
01:24 12.1 9.5 84 1016.4 15.9 S 24.4 0.0 0.0
01:25 12.1 9.5 84 1016.5 20.6 SW 20.6 0.0 0.0
01:26 12.1 9.5 84 1016.4 20.6 SW 20.6 0.0 0.0
01:27 12.1 9.5 84 1016.3 17.4 SE 20.6 0.0 0.0
01:28 12.1 9.5 84 1016.4 15.2 SW 20.6 0.0 0.0
01:29 12.1 9.5 84 1016.4 15.2 SW 20.6 0.0 0.0
01:30 12.1 9.5 84 1016.2 16.8 S 20.6 0.0 0.0
01:31 12.1 9.5 84 1016.4 16.8 S 20.6 0.0 0.0
01:32 12.1 9.5 84 1016.5 15.2 SW 20.6 0.0 0.0
01:33 12.1 9.5 84 1016.3 15.2 SW 20.6 0.0 0.0
01:34 12.1 9.5 84 1016.6 15.9 WSW 20.6 0.0 0.0
01:35 12.1 9.5 84 1016.4 15.2 S 20.6 0.0 0.0
01:36 12.1 9.5 84 1016.4 22.1 S 22.1 0.0 0.0
01:37 12.1 9.5 84 1016.5 18.3 SW 22.1 0.0 0.0
01:38 12.1 9.5 84 1016.6 21.3 S 22.1 0.0 0.0
01:39 12.1 9.5 84 1016.4 18.3 S 22.1 0.0 0.0
01:40 12.1 9.5 84 1016.3 16.8 S 22.1 0.0 0.0
01:41 12.1 9.5 84 1016.5 18.3 S 22.1 0.0 0.0
01:42 12.1 9.5 84 1016.2 22.8 S 22.8 0.0 0.0
01:43 12.2 9.6 84 1016.1 16.8 S 22.8 0.0 0.0
01:44 12.2 9.6 84 1016.4 13.6 S 22.8 0.0 0.0
01:45 12.2 9.6 84 1016.2 14.5 S 22.8 0.0 0.0
01:46 12.1 9.5 84 1016.4 14.5 SSE 22.8 0.0 0.0
01:47 12.1 9.5 84 1016.4 12.1 S 22.8 0.0 0.0
01:48 12.1 9.5 84 1016.4 18.3 S 22.8 0.0 0.0
01:49 12.1 9.5 84 1016.3 16.8 SE 22.8 0.0 0.0
01:51 12.1 9.7 85 1016.4 16.8 S 22.8 0.0 0.0
01:52 12.1 9.7 85 1016.2 16.8 W 22.8 0.0 0.0
01:53 12.1 9.7 85 1016.3 19.7 S 19.7 0.0 0.0
01:54 12.1 9.7 85 1016.5 19.7 S 19.7 0.0 0.0
01:55 12.1 9.7 85 1016.1 14.5 S 19.7 0.0 0.0
01:56 12.2 9.8 85 1016.4 16.8 SE 19.7 0.0 0.0
01:57 12.2 9.8 85 1016.4 15.2 S 19.7 0.0 0.0
01:58 12.2 9.8 85 1016.3 17.4 S 19.7 0.0 0.0
01:59 12.2 9.8 85 1016.4 17.4 S 19.7 0.0 0.0
02:00 12.2 9.8 85 1016.4 18.3 SSE 19.7 0.0 0.0
02:01 12.2 9.8 85 1016.2 17.4 S 19.7 0.0 0.0
02:02 12.2 9.8 85 1016.1 16.8 S 19.7 0.0 0.0
02:03 12.2 9.8 85 1016.2 15.9 S 19.7 0.0 0.0
02:04 12.2 9.8 85 1016.3 21.3 S 21.3 0.0 0.0
02:06 12.2 9.8 85 1016.2 17.4 S 21.3 0.0 0.0
02:07 12.2 9.8 85 1016.1 20.6 S 21.3 0.0 0.0
02:08 12.2 9.8 85 1016.1 13.6 SE 21.3 0.0 0.0
02:09 12.2 9.8 85 1016.0 13.6 SE 21.3 0.0 0.0
02:10 12.2 9.8 85 1016.1 12.1 SE 21.3 0.0 0.0
02:11 12.2 9.8 85 1016.0 21.3 S 21.3 0.0 0.0
02:12 12.2 9.8 85 1015.9 17.4 S 21.3 0.0 0.0
02:13 12.2 9.8 85 1015.8 14.5 S 21.3 0.0 0.0
02:14 12.2 9.8 85 1016.1 14.5 SE 21.3 0.0 0.0
02:15 12.2 9.8 85 1016.1 15.2 S 21.3 0.0 0.0
02:16 12.2 9.8 85 1016.0 20.6 SSW 21.3 0.0 0.0
02:17 12.2 9.8 85 1016.0 18.3 SW 21.3 0.0 0.0
02:19 12.2 9.8 85 1016.0 15.2 S 21.3 0.0 0.0
02:20 12.3 9.9 85 1016.1 13.6 S 21.3 0.0 0.0
02:21 12.3 9.9 85 1016.0 13.6 S 20.6 0.0 0.0
02:22 12.3 9.9 85 1015.9 12.1 S 20.6 0.0 0.0
02:23 12.3 9.9 85 1015.9 14.5 S 20.6 0.0 0.0
02:24 12.2 9.8 85 1016.0 17.4 S 20.6 0.0 0.0
02:25 12.2 9.8 85 1015.9 20.6 S 20.6 0.0 0.0
02:26 12.2 9.8 85 1015.8 17.4 S 20.6 0.0 0.0
02:27 12.2 9.8 85 1016.1 17.4 S 20.6 0.0 0.0
02:28 12.2 9.8 85 1016.1 13.6 SW 20.6 0.0 0.0
02:29 12.2 9.8 85 1016.1 15.2 S 20.6 0.0 0.0
02:30 12.2 9.8 85 1015.7 16.8 S 20.6 0.0 0.0
02:31 12.2 9.8 85 1015.8 14.5 SE 20.6 0.0 0.0
02:32 12.2 9.8 85 1015.9 12.1 S 20.6 0.0 0.0
02:34 12.2 9.9 86 1016.1 14.5 S 20.6 0.0 0.0
02:35 12.2 9.9 86 1016.0 13.0 S 20.6 0.0 0.0
02:36 12.2 9.9 86 1016.0 15.9 S 17.4 0.0 0.0
02:37 12.2 9.9 86 1015.7 18.3 S 18.3 0.0 0.0
02:38 12.2 9.9 86 1015.7 18.3 S 18.3 0.0 0.0
02:39 12.2 9.9 86 1016.0 15.2 S 18.3 0.0 0.0
02:40 12.2 9.9 86 1015.9 21.3 SW 21.3 0.0 0.0
02:41 12.2 9.9 86 1015.9 14.5 SSE 21.3 0.0 0.0
02:42 12.2 9.9 86 1015.8 13.0 SE 21.3 0.0 0.0
02:43 12.2 9.9 86 1015.8 17.4 SE 21.3 0.0 0.0
02:44 12.2 9.9 86 1015.9 17.4 S 21.3 0.0 0.0
02:45 12.2 9.9 86 1015.7 16.8 S 21.3 0.0 0.0
02:46 12.2 9.9 86 1015.9 19.0 S 21.3 0.0 0.0
02:47 12.2 9.9 86 1015.9 17.4 S 21.3 0.0 0.0
02:49 12.2 9.9 86 1015.9 19.0 S 21.3 0.0 0.0
02:50 12.3 10.0 86 1015.9 18.3 S 21.3 0.0 0.0
02:51 12.3 10.0 86 1016.1 18.3 SE 19.0 0.0 0.0
02:52 12.3 10.0 86 1015.8 14.5 S 19.0 0.0 0.0
02:53 12.3 10.0 86 1015.8 15.2 SE 19.0 0.0 0.0
02:54 12.3 10.0 86 1015.8 15.9 S 19.0 0.0 0.0
02:55 12.3 10.0 86 1015.8 16.8 S 19.0 0.0 0.0
02:56 12.3 10.0 86 1015.8 14.5 S 19.0 0.0 0.0
02:57 12.3 10.0 86 1015.9 16.8 S 19.0 0.0 0.0
02:58 12.3 10.0 86 1015.7 15.9 S 19.0 0.0 0.0
02:59 12.3 10.0 86 1015.7 15.2 S 18.3 0.0 0.0
03:00 12.3 10.0 86 1015.8 15.2 S 18.3 0.0 0.0
03:01 12.3 10.0 86 1016.0 15.2 S 18.3 0.0 0.0
03:03 12.3 10.0 86 1015.5 15.2 S 16.8 0.0 0.0
03:04 12.3 10.0 86 1015.6 15.2 S 16.8 0.0 0.0
03:05 12.3 10.0 86 1015.6 15.2 S 16.8 0.0 0.0
03:06 12.3 10.0 86 1015.7 15.2 S 16.8 0.0 0.0
03:07 12.3 10.0 86 1015.8 18.3 SE 18.3 0.0 0.0
03:08 12.3 10.0 86 1015.8 11.4 S 18.3 0.0 0.0
03:09 12.3 10.0 86 1015.8 13.0 S 18.3 0.0 0.0
03:10 12.3 10.0 86 1015.7 12.1 SE 18.3 0.0 0.0
03:11 12.3 10.0 86 1015.5 18.3 S 18.3 0.0 0.0
03:12 12.3 10.0 86 1015.7 19.0 S 19.0 0.0 0.0
03:13 12.3 10.0 86 1015.6 17.4 S 19.0 0.0 0.0
03:14 12.3 10.0 86 1015.6 15.2 SE 19.0 0.0 0.0
03:15 12.3 10.0 86 1015.5 12.1 S 19.0 0.0 0.0
03:17 12.3 10.0 86 1015.6 11.4 S 19.0 0.0 0.0
03:18 12.3 10.0 86 1015.6 15.2 S 19.0 0.0 0.0
03:19 12.3 10.0 86 1015.7 16.8 S 19.0 0.0 0.0
03:20 12.3 10.0 86 1015.5 17.4 S 19.0 0.0 0.0
03:21 12.3 10.0 86 1015.8 17.4 SE 19.0 0.0 0.0
03:22 12.3 10.0 86 1015.6 20.6 S 20.6 0.0 0.0
03:23 12.3 10.0 86 1015.7 15.2 SSW 20.6 0.0 0.0
03:24 12.3 10.0 86 1015.6 18.3 S 20.6 0.0 0.0
03:25 12.3 10.0 86 1015.6 17.4 S 20.6 0.0 0.0
03:26 12.3 10.0 86 1015.4 16.8 SSE 20.6 0.0 0.0
03:27 12.3 10.0 86 1015.4 15.9 S 20.6 0.0 0.0
03:28 12.3 10.0 86 1015.4 10.7 SE 20.6 0.0 0.0
03:29 12.3 10.0 86 1015.6 13.6 WSW 20.6 0.0 0.0
03:31 12.3 10.0 86 1015.4 12.1 S 20.6 0.0 0.0
03:32 12.3 10.0 86 1015.4 14.5 SE 20.6 0.0 0.0
03:33 12.3 10.0 86 1015.3 17.4 S 18.3 0.0 0.0
03:34 12.3 10.0 86 1015.4 16.8 SE 18.3 0.0 0.0
03:35 12.3 10.0 86 1015.4 15.2 SW 18.3 0.0 0.0
03:36 12.3 10.2 87 1015.4 13.0 S 17.4 0.0 0.0
03:37 12.3 10.2 87 1015.3 13.6 S 17.4 0.0 0.0
03:38 12.3 10.2 87 1015.3 13.0 SSW 17.4 0.0 0.0
03:39 12.3 10.2 87 1015.2 17.4 SE 17.4 0.0 0.0
03:41 12.3 10.2 87 1015.5 15.9 S 17.4 0.0 0.0
03:42 12.3 10.2 87 1015.6 19.0 S 19.0 0.0 0.0
03:43 12.3 10.2 87 1015.6 13.0 S 19.0 0.0 0.0
03:45 12.3 10.2 87 1015.3 14.5 S 19.0 0.0 0.0
03:46 12.3 10.2 87 1015.2 14.5 S 19.0 0.0 0.0
03:47 12.3 10.2 87 1015.1 14.5 S 19.0 0.0 0.0
03:48 12.3 10.2 87 1015.2 12.1 SSW 19.0 0.0 0.0
03:49 12.3 10.2 87 1015.3 13.0 SSE 19.0 0.0 0.0
03:50 12.3 10.2 87 1015.1 11.4 S 19.0 0.0 0.0
03:51 12.3 10.2 87 1015.2 11.4 ENE 19.0 0.0 0.0
03:52 12.3 10.2 87 1015.2 14.5 SE 19.0 0.0 0.0
03:53 12.3 10.4 88 1015.2 15.2 S 16.8 0.0 0.0
03:54 12.3 10.4 88 1015.3 18.3 SE 18.3 0.0 0.0
03:55 12.3 10.4 88 1015.3 18.3 S 18.3 0.0 0.0
03:56 12.3 10.4 88 1015.4 17.4 SE 18.3 0.0 0.0
03:57 12.3 10.4 88 1015.0 15.2 S 18.3 0.0 0.0
03:59 12.3 10.4 88 1015.2 13.0 S 18.3 0.0 0.0
04:00 12.3 10.4 88 1015.1 15.2 S 18.3 0.0 0.0
04:01 12.3 10.4 88 1015.1 16.8 SE 18.3 0.0 0.0
04:02 12.3 10.4 88 1015.2 10.7 SE 18.3 0.0 0.0
04:03 12.3 10.4 88 1015.0 13.6 S 18.3 0.0 0.0
04:04 12.3 10.5 89 1014.9 15.9 S 18.3 0.0 0.0
04:05 12.3 10.5 89 1015.0 16.8 SW 18.3 0.0 0.0
04:06 12.3 10.5 89 1015.3 16.8 S 17.4 0.0 0.0
04:07 12.3 10.5 89 1015.2 14.5 S 16.8 0.0 0.0
04:08 12.3 10.5 89 1015.0 13.0 S 16.8 0.0 0.0
04:09 12.3 10.5 89 1015.2 14.5 S 16.8 0.0 0.0
04:10 12.3 10.5 89 1015.1 10.7 NE 16.8 0.0 0.0
04:11 12.3 10.5 89 1014.9 15.2 SE 16.8 0.0 0.0
04:12 12.3 10.5 89 1015.0 13.0 S 16.8 0.0 0.0
04:14 12.3 10.5 89 1015.2 9.2 S 16.8 0.0 0.0
04:15 12.3 10.5 89 1014.8 11.4 S 16.8 0.0 0.0
04:16 12.3 10.5 89 1015.1 14.5 S 16.8 0.0 0.0
04:17 12.3 10.5 89 1014.9 14.5 S 15.2 0.0 0.1
04:18 12.3 10.5 89 1015.1 10.7 S 15.2 0.8 0.1
04:19 12.3 10.5 89 1014.9 11.4 S 15.2 0.8 0.1
04:20 12.3 10.5 89 1014.9 15.9 S 15.9 0.8 0.1
04:21 12.3 10.5 89 1015.0 13.6 S 15.9 0.8 0.1
04:22 12.2 10.4 89 1015.0 11.4 S 15.9 0.8 0.1
04:23 12.2 10.4 89 1014.9 13.6 S 15.9 0.0 0.1
04:24 12.2 10.4 89 1015.2 13.0 S 15.9 0.0 0.1
04:25 12.2 10.6 90 1014.9 12.1 S 15.9 0.8 0.1
04:26 12.2 10.6 90 1015.0 10.7 S 15.9 0.8 0.2
04:28 12.2 10.6 90 1015.0 15.9 SE 15.9 1.5 0.3
04:29 12.2 10.6 90 1015.1 13.0 SSE 15.9 2.3 0.3
04:30 12.2 10.6 90 1014.8 9.8 SW 15.9 1.5 0.3
04:31 12.1 10.5 90 1014.9 9.8 S 15.9 3.0 0.4
04:32 12.1 10.5 90 1015.0 14.5 S 15.9 2.3 0.4
04:33 12.1 10.5 90 1014.9 15.9 S 15.9 3.0 0.4
04:34 12.1 10.5 90 1015.1 15.9 S 15.9 2.3 0.4
04:35 12.1 10.5 90 1014.9 9.2 SW 15.9 3.0 0.6
04:36 12.1 10.5 90 1014.7 9.2 S 15.9 2.3 0.6
04:37 12.1 10.7 91 1014.9 12.1 SE 15.9 2.3 0.6
04:38 12.1 10.7 91 1014.8 11.4 S 15.9 1.5 0.6
04:39 12.0 10.6 91 1014.9 10.7 S 15.9 2.3 0.6
04:40 12.0 10.6 91 1014.8 9.8 S 15.9 1.5 0.7
04:42 12.0 10.6 91 1014.9 11.4 S 15.9 1.5 0.7
04:43 12.0 10.6 91 1014.8 9.8 SE 15.9 1.5 0.7
04:44 12.0 10.6 91 1014.6 12.1 S 15.9 1.5 0.8
04:45 12.0 10.6 91 1014.7 13.0 SE 13.0 1.5 0.8
04:46 12.0 10.6 91 1014.7 13.0 SE 13.0 1.5 0.8
04:47 12.0 10.6 91 1014.6 13.6 SE 13.6 1.5 0.8
04:48 12.0 10.7 92 1014.7 13.6 S 14.5 2.3 0.9
04:49 12.0 10.7 92 1014.8 7.6 S 14.5 1.5 0.9
04:50 11.9 10.6 92 1014.7 11.4 SE 14.5 1.5 0.9
04:51 11.9 10.6 92 1014.9 15.2 SE 15.2 1.5 0.9
04:52 11.9 10.6 92 1014.8 15.9 SE 15.9 1.5 0.9
04:53 11.9 10.6 92 1014.7 15.9 SE 15.9 0.8 1.0
04:54 11.9 10.6 92 1014.7 14.5 S 15.9 1.5 1.1
04:55 11.9 10.6 92 1014.5 12.1 S 15.9 2.3 1.1
04:57 11.9 10.8 93 1014.7 13.0 SE 15.9 2.3 1.1
04:58 11.9 10.8 93 1014.5 9.8 S 15.9 2.3 1.1
04:59 11.9 10.8 93 1014.6 10.7 S 15.9 2.3 1.2
05:00 11.9 10.8 93 1014.6 10.7 S 15.9 1.5 1.2
05:01 11.9 10.8 93 1014.5 10.7 S 15.9 1.5 1.2
05:02 11.9 10.8 93 1014.7 10.7 S 15.9 0.8 1.2
05:03 11.9 10.8 93 1014.6 10.7 S 15.9 0.8 1.2
05:04 11.9 10.8 93 1014.5 10.7 S 14.5 0.0 1.2
05:05 11.9 10.8 93 1014.4 10.7 S 13.0 0.0 1.2
05:06 11.9 10.8 93 1014.6 13.0 SW 13.0 0.0 1.3
05:07 11.9 10.8 93 1014.5 13.0 S 13.0 0.8 1.3
05:08 11.9 10.8 93 1014.6 10.7 S 13.0 0.8 1.3
05:09 11.9 11.0 94 1014.6 8.3 S 13.0 0.8 1.3
05:11 11.9 11.0 94 1014.6 10.7 SSE 13.0 0.8 1.3
05:12 11.9 11.0 94 1014.5 9.8 SE 13.0 0.0 1.3
05:13 11.9 11.0 94 1014.6 10.7 S 13.0 0.0 1.3
05:14 11.9 11.0 94 1014.6 11.4 SE 13.0 0.0 1.3
05:15 11.9 11.0 94 1014.5 12.1 SE 13.0 0.8 1.3
05:16 12.0 11.1 94 1014.4 15.9 S 15.9 0.8 1.3
05:17 12.0 11.1 94 1014.6 12.1 SE 15.9 0.8 1.3
05:18 12.0 11.1 94 1014.3 13.6 S 15.9 0.8 1.3
05:19 12.0 11.1 94 1014.3 15.2 S 15.9 0.8 1.4
05:20 12.0 11.1 94 1014.4 14.5 S 15.9 0.8 1.4
05:21 12.0 11.1 94 1014.5 14.5 S 15.9 0.8 1.4
05:22 12.0 11.2 95 1014.4 12.1 S 15.9 0.8 1.4
05:23 12.0 11.2 95 1014.5 9.8 S 15.9 0.8 1.4
05:25 12.0 11.2 95 1014.5 13.0 SSE 15.9 0.8 1.4
05:26 12.0 11.2 95 1014.3 13.0 SSE 15.9 0.8 1.4
05:27 12.0 11.2 95 1014.6 18.3 S 18.3 0.8 1.4
05:28 12.1 11.3 95 1014.3 13.6 S 18.3 1.5 1.5
05:29 12.1 11.3 95 1014.4 13.0 E 18.3 0.8 1.5
05:30 12.1 11.3 95 1014.3 13.0 SSE 18.3 0.8 1.5
05:31 12.1 11.3 95 1014.5 13.0 SW 18.3 0.8 1.5
05:32 12.1 11.3 95 1014.1 13.0 SW 18.3 0.8 1.5
05:33 12.1 11.3 95 1014.2 13.0 S 18.3 0.0 1.5
05:34 12.1 11.3 95 1014.4 13.6 S 18.3 0.0 1.6
05:35 12.1 11.3 95 1014.5 12.1 S 18.3 0.8 1.6
05:36 12.1 11.3 95 1014.4 15.2 S 18.3 0.8 1.6
05:37 12.1 11.3 95 1014.3 13.6 S 15.2 0.8 1.6
05:39 12.1 11.5 96 1014.4 14.5 S 15.2 1.5 1.6
05:40 12.1 11.5 96 1014.3 14.5 SSW 15.2 0.8 1.6
05:41 12.1 11.5 96 1014.5 14.5 SSW 15.2 0.8 1.6
05:42 12.1 11.5 96 1014.1 13.0 SE 15.2 0.8 1.7
05:43 12.1 11.5 96 1014.4 13.6 ENE 15.2 1.5 1.7
05:44 12.1 11.5 96 1014.3 13.0 S 15.2 1.5 1.8
05:45 12.1 11.5 96 1014.6 15.2 S 15.2 1.5 1.8
05:46 12.1 11.5 96 1014.3 13.0 S 15.2 2.3 1.8
05:47 12.1 11.5 96 1014.3 13.0 S 15.2 2.3 1.8
05:48 12.1 11.5 96 1014.3 10.7 S 15.2 1.5 1.8
05:49 12.1 11.5 96 1014.3 12.1 S 15.2 0.8 1.9
05:50 12.1 11.5 96 1014.4 9.2 SW 15.2 1.5 1.9
05:51 12.1 11.5 96 1014.3 9.2 SW 15.2 0.8 1.9
05:53 12.1 11.5 96 1014.1 15.2 SE 15.2 1.5 2.0
05:54 12.1 11.5 96 1014.4 15.2 S 15.2 1.5 2.0
05:55 12.1 11.5 96 1014.4 15.2 S 15.2 1.5 2.0
05:56 12.1 11.5 96 1014.1 14.5 S 15.2 1.5 2.0
05:57 12.1 11.5 96 1014.2 14.5 S 15.2 1.5 2.0
05:58 12.1 11.5 96 1014.3 13.0 S 15.2 0.8 2.1
05:59 12.1 11.6 97 1014.3 9.2 SE 15.2 1.5 2.1
06:00 12.1 11.6 97 1014.1 13.6 S 15.2 0.8 2.1
06:01 12.1 11.6 97 1014.3 13.6 S 15.2 0.8 2.1
06:02 12.1 11.6 97 1014.1 15.2 S 15.2 0.8 2.1
06:03 12.1 11.6 97 1014.2 11.4 S 15.2 0.8 2.1
06:04 12.1 11.6 97 1014.2 19.7 S 19.7 0.0 2.1
06:05 12.1 11.6 97 1014.1 18.3 S 19.7 0.0 2.1
06:07 12.2 11.7 97 1014.1 13.6 S 19.7 0.0 2.1
06:08 12.2 11.7 97 1014.4 13.0 S 19.7 0.0 2.1
06:09 12.2 11.7 97 1013.9 16.8 S 19.7 0.0 2.1
06:10 12.2 11.7 97 1014.5 16.8 S 19.7 0.0 2.1
06:11 12.2 11.7 97 1014.0 16.8 S 19.7 0.0 2.1
06:12 12.2 11.7 97 1014.0 14.5 S 19.7 0.0 2.1
06:13 12.2 11.7 97 1014.1 9.8 SW 19.7 0.0 2.1
06:14 12.2 11.7 97 1014.3 17.4 S 19.7 0.0 2.1
06:15 12.2 11.7 97 1014.1 16.8 SW 18.3 0.8 2.1
06:16 12.2 11.7 97 1014.2 15.9 SW 18.3 0.8 2.1
06:17 12.2 11.7 97 1014.2 13.0 S 18.3 0.8 2.2
06:18 12.3 12.0 98 1014.0 12.1 S 18.3 1.5 2.2
06:19 12.3 12.0 98 1014.3 15.9 SSW 18.3 1.5 2.3
06:20 12.3 12.0 98 1014.1 19.7 S 19.7 1.5 2.3
06:22 12.3 12.0 98 1014.0 19.0 S 19.7 2.3 2.3
06:23 12.3 12.0 98 1014.0 19.0 S 19.7 2.3 2.4
06:24 12.3 12.0 98 1014.0 16.8 SSE 19.7 2.3 2.4
06:25 12.3 12.0 98 1014.0 16.8 SSE 19.7 1.5 2.4
06:26 12.3 12.0 98 1013.9 16.8 SE 19.7 1.5 2.5
06:27 12.3 12.0 98 1014.3 16.8 SE 19.7 2.3 2.5
06:28 12.3 12.0 98 1014.0 11.4 S 19.7 2.3 2.6
06:29 12.3 12.0 98 1014.0 12.1 SSW 19.7 3.0 2.7
06:30 12.3 12.0 98 1014.1 15.2 S 19.0 3.8 2.7
06:31 12.3 12.0 98 1014.0 15.2 S 19.0 3.8 2.7
06:32 12.3 12.0 98 1014.0 16.8 S 19.0 2.3 2.8
06:33 12.3 12.0 98 1014.0 13.6 S 18.3 2.3 2.8
06:34 12.4 12.1 98 1014.0 15.2 S 18.3 1.5 2.8
06:36 12.4 12.1 98 1013.9 13.6 S 18.3 1.5 2.9
06:37 12.4 12.1 98 1013.9 14.5 S 18.3 2.3 2.9
06:38 12.4 12.1 98 1013.8 12.1 SW 18.3 1.5 3.0
06:39 12.4 12.3 99 1013.9 13.0 S 18.3 2.3 3.0
06:40 12.4 12.3 99 1013.9 14.5 SE 18.3 1.5 3.0
06:41 12.4 12.3 99 1014.0 10.7 SW 16.8 1.5 3.0
06:42 12.4 12.3 99 1013.9 13.6 SW 16.8 1.5 3.0
06:43 12.4 12.3 99 1013.9 18.3 S 18.3 1.5 3.1
06:44 12.4 12.3 99 1014.0 18.3 SE 18.3 1.5 3.1
06:45 12.4 12.3 99 1014.0 14.5 SE 18.3 1.5 3.1
06:46 12.4 12.3 99 1013.9 13.6 S 18.3 1.5 3.1
06:47 12.4 12.3 99 1013.9 15.2 SW 18.3 0.8 3.1
06:48 12.4 12.3 99 1013.9 14.5 SW 18.3 0.8 3.1
06:50 12.4 12.3 99 1013.8 15.2 S 19.0 0.8 3.1
06:51 12.4 12.3 99 1014.0 13.6 S 19.0 1.5 3.2
06:52 12.4 12.3 99 1013.9 18.3 S 19.0 1.5 3.2
06:53 12.4 12.3 99 1013.9 16.8 S 19.0 1.5 3.2
06:54 12.4 12.3 99 1013.9 12.1 SW 19.0 0.8 3.2
06:55 12.4 12.3 99 1013.9 18.3 SSW 19.0 0.8 3.2
06:56 12.4 12.3 99 1014.1 16.8 SE 19.0 0.8 3.3
06:57 12.4 12.3 99 1014.0 18.3 WSW 19.0 0.8 3.3
06:58 12.5 11.7 95 1013.8 15.9 SW 19.0 1.5 3.4
06:59 12.5 11.7 95 1013.7 15.9 S 18.3 2.3 3.4
07:00 12.5 11.7 95 1013.7 15.9 S 18.3 2.3 3.4
07:01 12.5 11.7 95 1013.8 15.9 S 18.3 1.5 3.4
07:02 12.5 11.7 95 1013.6 15.9 S 18.3 1.5 3.4
07:04 12.5 11.7 95 1013.7 15.9 S 18.3 0.0 3.4
07:05 12.5 11.7 95 1013.7 15.9 S 18.3 0.0 3.4
07:06 12.5 11.7 95 1013.7 15.9 S 18.3 0.0 3.4
07:07 12.5 11.7 95 1013.5 13.0 S 18.3 1.5 3.5
07:08 12.5 11.7 95 1013.6 16.8 S 18.3 1.5 3.5
07:09 12.5 11.7 95 1013.6 13.6 SSW 16.8 1.5 3.6
07:10 12.5 11.7 95 1013.5 15.2 S 16.8 2.3 3.6
07:11 12.5 11.7 95 1013.4 15.2 S 16.8 2.3 3.6
07:12 12.5 11.7 95 1013.4 15.9 S 16.8 0.8 3.6
07:13 12.5 11.7 95 1013.6 15.9 SSE 16.8 0.8 3.6
07:14 12.6 11.8 95 1013.3 18.3 S 18.3 0.8 3.6
07:15 12.6 11.8 95 1013.5 18.3 S 18.3 0.0 3.6
07:16 12.6 11.8 95 1013.5 19.0 S 19.0 0.0 3.7
07:18 12.6 11.8 95 1013.3 13.0 SSW 19.0 0.8 3.7
07:19 12.6 11.8 95 1013.3 12.1 SW 19.0 0.8 3.7
07:20 12.6 11.8 95 1013.5 15.9 S 19.0 1.5 3.7
07:21 12.6 11.8 95 1013.4 15.9 SE 19.0 1.5 3.7
07:22 12.6 11.8 95 1013.3 17.4 S 19.0 0.8 3.7
07:23 12.6 11.8 95 1013.4 14.5 SW 19.0 0.8 3.7
07:24 12.6 11.8 95 1013.3 9.2 S 19.0 0.8 3.7
07:25 12.6 11.8 95 1013.4 9.8 S 19.0 0.0 3.7
07:26 12.6 11.8 95 1013.2 13.0 S 19.0 0.0 3.7
07:27 12.6 11.8 95 1013.4 13.6 S 17.4 0.0 3.7
07:28 12.6 11.8 95 1013.4 11.4 S 17.4 0.0 3.7
07:29 12.6 12.0 96 1013.3 11.4 S 17.4 0.0 3.7
07:30 12.6 12.0 96 1013.4 10.7 SE 17.4 0.0 3.7
07:32 12.7 12.1 96 1013.4 11.4 S 17.4 0.0 3.7
07:33 12.7 12.1 96 1013.5 13.0 S 13.6 0.0 3.7
07:34 12.7 12.1 96 1013.5 9.2 SW 13.6 0.0 3.7
07:35 12.7 12.1 96 1013.5 9.2 SW 13.6 0.0 3.7
07:36 12.7 12.1 96 1013.5 11.4 SSE 13.6 0.0 3.7
07:37 12.7 12.1 96 1013.4 13.6 SW 13.6 0.0 3.7
07:38 12.7 12.1 96 1013.4 13.6 SSE 13.6 0.0 3.7
07:39 12.7 12.1 96 1013.3 10.7 SE 13.6 0.0 3.7
07:40 12.7 12.1 96 1013.3 10.7 S 13.6 0.0 3.7
07:41 12.7 12.1 96 1013.6 10.7 S 13.6 0.0 3.7
07:42 12.7 12.1 96 1013.4 15.9 S 15.9 0.0 3.7
07:43 12.7 12.1 96 1013.6 15.9 S 15.9 0.0 3.7
07:44 12.7 12.1 96 1013.4 15.9 S 15.9 0.0 3.7
07:45 12.7 12.1 96 1013.4 14.5 S 15.9 0.0 3.7
07:47 12.7 12.1 96 1013.3 12.1 SE 15.9 0.0 3.7
07:48 12.7 12.1 96 1013.4 13.0 S 16.8 0.0 3.7
07:49 12.7 12.1 96 1013.3 13.0 S 16.8 0.0 3.7
07:50 12.7 12.1 96 1013.3 13.6 SE 16.8 0.0 3.7
07:51 12.7 12.1 96 1013.4 11.4 S 16.8 0.8 3.8
07:52 12.8 12.2 96 1013.4 12.1 S 16.8 0.8 3.8
07:53 12.8 12.2 96 1013.5 13.6 S 16.8 0.8 3.8
07:54 12.8 12.2 96 1013.5 10.7 SE 16.8 1.5 3.8
07:55 12.8 12.2 96 1013.4 14.5 SSE 16.8 1.5 3.8
07:56 12.8 12.2 96 1013.2 16.8 S 16.8 0.8 3.9
07:57 12.8 12.2 96 1013.5 18.3 S 18.3 1.5 3.9
07:58 12.8 12.2 96 1013.6 18.3 S 18.3 1.5 3.9
07:59 12.8 12.2 96 1013.5 18.3 S 18.3 0.8 3.9
08:01 12.9 12.3 96 1013.4 11.4 SW 18.3 0.8 3.9
08:02 12.9 12.3 96 1013.5 16.8 S 18.3 0.0 3.9
08:03 12.8 12.2 96 1013.5 17.4 NNE 18.3 0.0 3.9
08:04 12.9 12.3 96 1013.5 15.2 S 18.3 0.0 3.9
08:05 12.9 12.3 96 1013.4 13.0 S 18.3 0.0 3.9
08:06 12.9 12.3 96 1013.4 18.3 SW 18.3 0.0 3.9
08:07 12.9 12.3 96 1013.4 18.3 S 18.3 0.0 3.9
08:08 12.9 12.3 96 1013.6 11.4 S 18.3 0.8 4.0
08:09 12.9 12.3 96 1013.4 19.0 S 19.0 0.8 4.0
08:10 12.9 12.3 96 1013.5 15.2 S 20.6 0.8 4.0
08:11 12.9 12.3 96 1013.8 17.4 S 20.6 0.8 4.0
08:12 12.9 12.3 96 1013.5 16.8 S 20.6 0.8 4.0
08:13 12.9 12.3 96 1013.5 18.3 S 20.6 0.0 4.0
08:15 12.9 12.3 96 1013.5 17.4 S 20.6 0.0 4.0
08:16 12.9 12.4 97 1013.3 11.4 W 20.6 0.0 4.0
08:17 12.9 12.4 97 1013.5 11.4 W 20.6 0.0 4.0
08:18 12.9 12.4 97 1013.6 13.6 S 20.6 0.0 4.0
08:19 12.9 12.4 97 1013.5 19.0 S 20.6 0.0 4.0
08:20 12.9 12.4 97 1013.5 15.2 SW 20.6 0.0 4.0
08:21 12.9 12.4 97 1013.6 14.5 SW 19.0 0.0 4.0
08:22 12.9 12.4 97 1013.6 14.5 SW 19.0 0.0 4.0
08:23 12.9 12.4 97 1013.4 16.8 S 19.0 0.0 4.0
08:24 12.9 12.4 97 1013.5 16.8 S 19.0 0.0 4.0
08:25 12.9 12.4 97 1013.5 9.8 S 19.0 0.0 4.0
08:26 12.9 12.4 97 1013.6 15.2 S 19.0 0.0 4.0
08:27 13.0 12.5 97 1013.6 15.9 S 19.0 0.0 4.0
08:29 13.0 12.5 97 1013.4 15.2 SE 19.0 0.0 4.0
08:30 13.0 12.5 97 1013.5 12.1 S 17.4 0.0 4.0
08:31 13.0 12.5 97 1013.3 14.5 S 17.4 0.8 4.0
08:32 13.0 12.5 97 1013.4 12.1 S 17.4 0.8 4.0
08:33 13.0 12.5 97 1013.6 13.6 S 17.4 0.8 4.0
08:34 13.0 12.5 97 1013.6 13.6 S 17.4 0.8 4.1
08:35 13.0 12.5 97 1013.3 13.6 S 17.4 1.5 4.1
08:36 13.0 12.5 97 1013.3 11.4 SW 17.4 0.8 4.1
08:37 13.0 12.5 97 1013.5 14.5 SW 17.4 0.8 4.1
08:38 13.0 12.5 97 1013.4 14.5 SW 15.2 0.8 4.1
08:39 13.0 12.5 97 1013.8 13.0 SW 15.2 0.8 4.1
08:40 13.0 12.5 97 1013.7 13.0 S 15.2 0.0 4.2
08:41 13.0 12.5 97 1013.7 15.9 S 15.9 0.8 4.2
08:43 13.0 12.5 97 1013.4 15.2 S 19.0 0.8 4.2
08:44 13.0 12.5 97 1013.6 13.6 S 19.0 0.8 4.2
08:45 13.0 12.5 97 1013.6 10.7 SW 19.0 1.5 4.2
08:46 13.0 12.5 97 1013.6 11.4 SW 19.0 0.8 4.2
08:47 13.0 12.5 97 1013.4 12.1 SW 19.0 0.8 4.2
08:48 13.0 12.5 97 1013.6 14.5 S 19.0 0.8 4.2
08:49 13.0 12.5 97 1013.5 13.0 S 19.0 0.8 4.2
08:50 13.0 12.5 97 1013.3 13.0 SW 19.0 0.0 4.2
08:51 13.0 12.5 97 1013.3 11.4 S 19.0 0.0 4.2
08:52 13.0 12.5 97 1013.5 13.0 SW 15.2 0.0 4.2
08:53 13.0 12.5 97 1013.6 13.0 S 14.5 0.0 4.2
08:54 13.0 12.5 97 1013.6 12.1 SW 14.5 0.0 4.2
08:55 13.0 12.5 97 1013.6 12.1 S 14.5 0.0 4.3
08:56 13.0 12.5 97 1013.6 12.1 NW 14.5 0.8 4.3
08:58 13.0 12.5 97 1013.6 11.4 S 14.5 0.8 4.3
08:59 13.0 12.5 97 1013.6 11.4 S 14.5 0.8 4.3
09:00 13.0 12.5 97 1013.6 12.1 SW 14.5 0.8 4.3
09:01 13.0 12.5 97 1013.6 12.1 SW 14.5 0.0 4.3
09:02 13.0 12.5 97 1013.6 12.1 SW 14.5 0.0 4.3
09:06 13.0 12.5 97 1013.7 12.1 SW 14.5 0.0 4.3
09:12 13.0 12.5 97 1013.6 15.2 S 15.2 0.0 4.3
09:13 13.0 12.5 97 1013.6 13.0 S 15.2 0.0 4.3
09:14 13.0 12.5 97 1013.7 15.9 S 15.9 0.0 4.3
09:15 13.1 12.6 97 1013.7 13.0 S 15.9 0.0 4.3
09:16 13.1 12.6 97 1013.7 13.6 SW 15.9 0.0 4.3
09:17 13.1 12.6 97 1013.7 10.7 S 15.9 0.0 4.3
09:18 13.1 12.6 97 1013.6 10.7 S 15.9 0.0 4.3
09:19 13.1 12.6 97 1013.8 10.7 S 15.9 0.0 4.3
09:20 13.1 12.6 97 1013.8 12.1 S 15.9 0.0 4.3
09:21 13.1 12.6 97 1013.6 13.6 S 15.9 0.0 4.3
09:22 13.1 12.6 97 1013.7 9.8 WSW 15.9 0.0 4.3
09:23 13.1 12.6 97 1013.8 12.1 SW 15.9 0.0 4.3
09:24 13.1 12.6 97 1013.5 12.1 WSW 15.9 0.0 4.3
09:25 13.1 12.6 97 1013.7 11.4 SW 13.6 0.0 4.3
09:26 13.1 12.6 97 1013.7 9.2 S 13.6 0.0 4.3
09:28 13.1 12.6 97 1014.0 12.1 S 13.6 0.0 4.3
09:29 13.1 12.6 97 1014.0 12.1 S 13.6 0.0 4.3
09:30 13.1 12.6 97 1014.0 11.4 SW 13.6 0.0 4.3
09:31 13.1 12.8 98 1013.9 13.0 S 13.0 0.0 4.3
09:32 13.2 12.9 98 1013.9 13.6 SW 13.6 0.0 4.3
09:33 13.2 12.9 98 1014.0 19.0 S 19.0 0.0 4.3
09:34 13.2 12.9 98 1014.0 19.0 S 19.0 0.0 4.3
09:35 13.2 12.9 98 1014.1 13.6 S 19.0 0.0 4.3
09:36 13.2 12.9 98 1013.7 11.4 SW 19.0 0.0 4.3
09:37 13.2 12.9 98 1013.9 11.4 SSW 19.0 0.0 4.3
09:38 13.2 12.9 98 1014.0 13.6 S 19.0 0.0 4.3
09:39 13.2 12.9 98 1013.9 13.0 SSE 19.0 0.0 4.3
09:40 13.2 12.9 98 1013.8 10.7 SSW 19.0 0.0 4.3
09:41 13.2 12.9 98 1013.9 13.6 S 19.0 0.0 4.3
09:42 13.2 12.9 98 1013.7 10.7 SW 19.0 0.0 4.3
09:43 13.2 12.9 98 1014.0 10.7 SW 19.0 0.0 4.3
09:44 13.2 12.9 98 1013.9 9.8 S 19.0 0.0 4.3
09:45 13.2 12.9 98 1014.1 9.8 S 13.6 0.0 4.3
09:46 13.2 12.9 98 1014.0 9.8 S 13.6 0.0 4.3
09:47 13.2 12.9 98 1014.0 10.7 S 13.6 0.0 4.3
09:48 13.2 12.9 98 1014.0 13.0 SW 13.6 0.0 4.3
09:49 13.2 12.9 98 1013.8 13.0 S 13.6 0.0 4.3
09:50 13.1 12.8 98 1013.9 9.2 SW 13.6 0.0 4.3
09:51 13.1 12.8 98 1013.9 9.8 N 13.6 0.0 4.3
09:52 13.1 12.8 98 1014.0 11.4 S 13.0 0.0 4.3
09:53 13.1 12.8 98 1013.9 11.4 S 13.0 0.0 4.3
09:54 13.2 12.9 98 1014.0 11.4 S 13.0 0.0 4.3
09:55 13.2 12.9 98 1014.0 13.0 SSW 13.0 0.0 4.3
09:56 13.2 12.9 98 1014.1 12.1 SW 13.0 0.0 4.3
09:57 13.2 12.9 98 1014.1 12.1 SW 13.0 0.0 4.3
09:58 13.2 12.9 98 1014.0 13.6 S 13.6 0.0 4.3
09:59 13.2 12.9 98 1014.2 9.2 S 13.6 0.0 4.3
10:00 13.2 12.9 98 1014.1 13.0 SSW 13.6 0.0 4.3
10:01 13.3 13.0 98 1013.9 15.9 SW 15.9 0.0 4.3
10:02 13.3 13.0 98 1013.9 15.9 SW 15.9 0.0 4.3
10:03 13.3 13.0 98 1014.0 14.5 S 15.9 0.0 4.3
10:04 13.3 13.0 98 1014.1 11.4 S 15.9 0.0 4.3
10:05 13.3 13.0 98 1014.0 14.5 SW 15.9 0.0 4.3
10:06 13.3 13.0 98 1013.9 13.6 SW 15.9 0.0 4.3
10:07 13.4 13.1 98 1014.0 12.1 SW 15.9 0.0 4.3
10:08 13.4 13.1 98 1013.9 15.2 SW 15.9 0.0 4.3
10:09 13.4 13.1 98 1014.0 13.0 S 15.9 0.0 4.3
10:10 13.4 13.1 98 1014.0 11.4 S 15.9 0.0 4.3
10:11 13.4 13.1 98 1014.2 13.0 S 15.9 0.0 4.3
10:12 13.5 13.2 98 1014.0 15.2 SW 15.9 0.0 4.3
10:13 13.5 13.2 98 1014.0 15.2 SW 15.2 0.0 4.3
10:14 13.5 13.2 98 1014.1 12.1 SW 15.2 0.0 4.3
10:15 13.5 13.2 98 1014.0 13.6 SSW 15.2 0.0 4.3
10:16 13.5 13.2 98 1014.0 13.6 SW 15.2 0.0 4.3
10:17 13.5 13.2 98 1013.8 13.0 NE 15.2 0.0 4.3
10:18 13.6 13.3 98 1013.9 13.0 SE 15.2 0.0 4.3
10:19 13.6 13.3 98 1013.9 9.8 SW 15.2 0.0 4.3
10:20 13.6 13.5 99 1013.9 11.4 SW 15.2 0.0 4.3
10:21 13.6 13.5 99 1013.8 15.2 SW 15.2 0.0 4.3
10:22 13.6 13.5 99 1013.9 12.1 SW 15.2 0.0 4.3
10:23 13.7 13.6 99 1013.7 10.7 S 15.2 0.0 4.3
10:24 13.7 13.6 99 1013.6 13.0 SE 15.2 0.0 4.3
10:25 13.7 13.6 99 1013.7 13.0 S 15.2 0.0 4.3
10:26 13.7 13.6 99 1013.8 13.6 S 15.2 0.0 4.3
10:27 13.7 13.6 99 1014.0 13.0 S 15.2 0.0 4.3
10:28 13.8 13.7 99 1013.8 13.0 S 15.2 0.0 4.3
10:29 13.8 13.7 99 1013.7 10.7 SW 15.2 0.0 4.3
10:30 13.8 13.7 99 1013.7 10.7 SW 15.2 0.0 4.3
10:31 13.8 13.7 99 1013.7 13.6 S 13.6 0.0 4.3
10:32 13.8 13.7 99 1013.9 9.8 SW 13.6 0.0 4.3
10:33 13.8 13.7 99 1013.9 9.8 SW 13.6 0.0 4.3
10:34 13.8 13.7 99 1013.9 9.8 SW 13.6 0.0 4.3
10:35 13.8 13.7 99 1014.0 13.6 S 13.6 0.0 4.3
10:36 13.8 13.7 99 1013.7 12.1 S 13.6 0.0 4.3
10:37 13.9 13.8 99 1014.0 9.8 SW 13.6 0.0 4.3
10:38 13.9 13.8 99 1014.0 12.1 WSW 13.6 0.0 4.3
10:39 13.9 13.8 99 1013.9 12.1 WSW 13.6 0.0 4.3
10:40 13.9 13.8 99 1013.9 10.7 S 13.6 0.0 4.3
10:41 14.0 13.9 99 1013.8 10.7 S 13.6 0.0 4.3
10:42 14.0 13.9 99 1013.8 12.1 SW 13.6 0.0 4.3
10:43 14.0 13.9 99 1013.9 12.1 SW 13.6 0.0 4.3
10:44 14.0 13.9 99 1013.8 13.6 S 13.6 0.0 4.3
10:45 14.0 13.9 99 1013.8 13.6 S 13.6 0.0 4.3
10:46 14.0 13.9 99 1013.9 9.2 SW 13.6 0.0 4.3
10:47 14.0 13.9 99 1014.0 12.1 S 13.6 0.0 4.3
10:48 14.0 13.9 99 1013.7 9.8 WSW 13.6 0.0 4.3
10:49 14.0 13.9 99 1013.9 11.4 SW 13.6 0.0 4.3
10:50 14.0 13.9 99 1013.8 11.4 SW 13.6 0.0 4.3
10:51 14.0 13.9 99 1013.8 10.7 SW 13.6 0.0 4.3
10:52 14.1 14.0 99 1013.9 9.2 S 13.6 0.0 4.3
10:53 14.0 13.9 99 1013.8 9.8 SW 13.6 0.0 4.3
10:54 14.0 13.9 99 1013.8 9.8 S 13.6 0.0 4.3
10:55 14.0 13.9 99 1013.9 7.6 SW 12.1 0.0 4.3
10:56 14.1 14.0 99 1013.9 12.1 SW 12.1 0.0 4.3
10:57 14.1 14.0 99 1013.7 10.7 WSW 12.1 0.0 4.3
10:58 14.1 14.0 99 1013.9 8.3 SW 12.1 0.0 4.3
10:59 14.1 14.0 99 1013.7 12.1 SW 12.1 0.0 4.3
11:00 14.1 14.0 99 1013.9 10.7 SW 12.1 0.0 4.3
11:01 14.1 14.0 99 1013.7 10.7 SW 12.1 0.0 4.3
11:02 14.1 14.0 99 1013.8 10.7 SW 12.1 0.0 4.3
11:03 14.1 14.0 99 1013.7 10.7 SW 12.1 0.0 4.3
11:04 14.1 14.0 99 1013.9 10.7 SW 12.1 0.0 4.3
11:05 14.1 14.0 99 1013.7 10.7 SW 12.1 0.0 4.3
11:06 14.2 14.1 99 1013.8 11.4 SW 12.1 0.0 4.3
11:07 14.2 14.1 99 1013.8 9.8 SW 12.1 0.0 4.3
11:08 14.2 14.1 99 1013.9 13.0 S 13.0 0.0 4.3
11:09 14.2 14.1 99 1014.0 13.0 S 13.0 0.0 4.3
11:10 14.3 14.2 99 1013.8 10.7 SW 13.0 0.0 4.3
11:11 14.3 14.2 99 1014.0 10.7 WSW 13.0 0.0 4.3
11:12 14.3 14.2 99 1013.8 9.8 SW 13.0 0.0 4.3
11:13 14.3 14.2 99 1013.9 9.2 S 13.0 0.0 4.3
11:14 14.3 14.2 99 1013.9 14.5 S 14.5 0.0 4.3
11:15 14.3 14.2 99 1013.7 14.5 SW 14.5 0.0 4.3
11:16 14.3 14.2 99 1013.8 12.1 SW 14.5 0.0 4.3
11:17 14.3 14.2 99 1013.8 12.1 SW 14.5 0.0 4.3
11:18 14.3 14.2 99 1013.8 12.1 SW 14.5 0.0 4.3
11:19 14.3 14.2 99 1013.9 11.4 SW 14.5 0.0 4.3
11:20 14.3 14.2 99 1013.8 11.4 S 14.5 0.0 4.3
11:21 14.3 14.2 99 1013.8 9.2 SW 14.5 0.0 4.3
11:22 14.3 14.2 99 1014.0 9.8 SW 14.5 0.0 4.3
11:23 14.3 14.2 99 1013.9 11.4 SW 14.5 0.0 4.3
11:24 14.3 14.2 99 1013.9 12.1 SW 14.5 0.0 4.3
11:25 14.4 14.3 99 1013.8 12.1 S 12.1 0.0 4.3
11:26 14.4 14.3 99 1013.8 10.7 NW 12.1 0.0 4.3
11:27 14.4 14.3 99 1014.0 13.0 SW 13.0 0.0 4.3
11:28 14.4 14.3 99 1013.8 15.2 S 15.9 0.0 4.3
11:29 14.4 14.3 99 1013.8 11.4 SW 15.9 0.0 4.3
11:30 14.4 14.3 99 1014.0 10.7 SW 15.9 0.0 4.3
11:31 14.4 14.3 99 1014.0 10.7 SW 15.9 0.0 4.3
11:32 14.4 14.3 99 1013.9 13.6 SW 15.9 0.0 4.3
11:33 14.4 14.3 99 1014.0 13.0 S 15.9 0.0 4.3
11:34 14.4 14.3 99 1013.8 13.0 SW 15.9 0.0 4.3
11:35 14.3 14.2 99 1013.9 10.7 SW 15.9 0.0 4.3
11:36 14.3 14.2 99 1014.1 10.7 SW 15.9 0.0 4.3
11:37 14.3 14.2 99 1014.0 10.7 SW 15.9 0.0 4.3
11:38 14.3 14.2 99 1014.0 11.4 SW 15.9 0.0 4.3
11:39 14.3 14.2 99 1013.9 9.2 W 13.6 0.0 4.3
11:40 14.3 14.2 99 1013.9 9.8 S 13.6 0.0 4.3
11:41 14.3 14.2 99 1013.8 9.8 SW 13.6 0.0 4.3
11:42 14.3 14.2 99 1014.1 8.3 WSW 13.0 0.0 4.3
11:43 14.3 14.2 99 1014.0 10.7 SW 13.0 0.0 4.3
11:44 14.3 14.2 99 1013.9 10.7 SW 11.4 0.0 4.3
11:45 14.3 14.2 99 1014.0 10.7 SW 11.4 0.0 4.3
11:46 14.3 14.2 99 1014.0 10.7 SW 11.4 0.0 4.3
11:47 14.4 14.3 99 1014.0 11.4 SW 11.4 0.0 4.3
11:48 14.4 14.3 99 1014.1 11.4 SW 11.4 0.0 4.3
11:49 14.5 14.4 99 1014.2 10.7 SW 11.4 0.0 4.3
11:50 14.6 14.5 99 1014.0 9.8 S 11.4 0.0 4.3
11:51 14.8 14.7 99 1014.0 8.3 SW 11.4 0.0 4.3
11:52 14.8 14.7 99 1014.0 9.8 SW 11.4 0.0 4.3
11:53 14.8 14.7 99 1014.0 11.4 SW 11.4 0.0 4.3
11:54 14.9 14.8 99 1014.1 11.4 S 11.4 0.0 4.3
11:55 14.9 14.8 99 1014.0 10.7 SW 11.4 0.0 4.3
11:56 15.0 14.9 99 1014.0 10.7 W 11.4 0.0 4.3
11:57 15.0 14.9 99 1014.1 11.4 SW 11.4 0.0 4.3
11:58 15.1 15.0 99 1014.2 11.4 WSW 11.4 0.0 4.3
11:59 15.1 15.0 99 1013.9 11.4 SE 11.4 0.0 4.3
12:00 15.2 15.1 99 1014.1 13.0 SW 13.0 0.0 4.3
12:01 15.2 15.1 99 1014.0 13.0 SW 13.0 0.0 4.3
12:02 15.2 15.1 99 1014.0 13.0 SW 13.0 0.0 4.3
12:03 15.3 15.2 99 1014.0 13.0 SW 13.0 0.0 4.3
12:04 15.3 15.2 99 1013.8 13.0 SW 13.0 0.0 4.3
12:05 15.3 15.2 99 1013.9 10.7 SW 13.0 0.0 4.3
12:06 15.4 15.3 99 1014.1 11.4 SW 13.0 0.0 4.3
12:07 15.4 15.3 99 1014.1 12.1 SW 13.0 0.0 4.3
12:08 15.5 15.4 99 1014.0 9.2 S 13.0 0.0 4.3
12:09 15.5 15.4 99 1014.2 10.7 NW 13.0 0.0 4.3
12:10 15.5 15.4 99 1014.1 10.7 SW 13.0 0.0 4.3
12:11 15.5 15.4 99 1014.2 12.1 SW 13.0 0.0 4.3
12:12 15.5 15.4 99 1014.1 11.4 SW 13.0 0.0 4.3
12:13 15.5 15.4 99 1014.1 8.3 SW 13.0 0.0 4.3
12:14 15.5 15.4 99 1014.0 9.8 W 12.1 0.0 4.3
12:15 15.5 15.4 99 1014.2 10.7 W 12.1 0.0 4.3
12:16 15.4 15.3 99 1014.1 10.7 W 12.1 0.0 4.3
12:17 15.4 15.3 99 1014.0 14.5 SW 14.5 0.0 4.3
12:18 15.4 15.3 99 1014.1 13.6 SW 14.5 0.0 4.3
12:19 15.3 15.0 98 1014.0 9.2 W 14.5 0.0 4.3
12:20 15.3 15.0 98 1013.8 10.7 WSW 14.5 0.0 4.3
12:21 15.3 15.0 98 1014.0 13.0 W 14.5 0.0 4.3
12:23 15.2 14.9 98 1013.9 14.5 W 14.5 0.0 4.3
12:24 15.1 14.6 97 1013.9 10.7 SW 14.5 0.0 4.3
12:25 15.1 14.6 97 1014.0 9.2 SW 14.5 0.0 4.3
12:26 15.1 14.6 97 1014.0 9.8 SW 14.5 0.0 4.3
12:27 15.0 14.5 97 1014.1 12.1 SW 14.5 0.0 4.3
12:28 15.0 14.4 96 1014.2 9.2 SW 14.5 0.0 4.3
12:29 15.0 14.4 96 1014.2 9.2 SW 14.5 0.0 4.3
12:30 15.0 14.4 96 1014.0 11.4 SW 14.5 0.0 4.3
12:31 14.9 14.3 96 1014.1 13.6 S 14.5 0.0 4.3
12:32 14.9 14.3 96 1014.1 8.3 SW 14.5 0.0 4.3
12:33 14.9 14.3 96 1014.0 13.0 SW 14.5 0.0 4.3
12:34 14.9 14.3 96 1014.0 12.1 SW 13.6 0.0 4.3
12:35 14.9 14.1 95 1014.0 12.1 SW 13.6 0.0 4.3
12:36 14.8 14.0 95 1014.1 12.1 W 13.6 0.0 4.3
12:37 14.8 14.0 95 1014.0 15.2 SSW 15.2 0.0 4.3
12:38 14.8 14.0 95 1014.0 13.6 SW 15.2 0.0 4.3
12:39 14.8 14.0 95 1014.1 13.0 NNW 15.2 0.0 4.3
12:40 14.8 14.0 95 1014.2 11.4 SW 15.2 0.0 4.3
12:41 14.9 14.1 95 1014.0 14.5 W 15.2 0.0 4.3
12:42 14.9 14.1 95 1014.4 14.5 W 15.2 0.0 4.3
12:43 14.9 14.1 95 1014.3 12.1 SW 15.2 0.0 4.3
12:44 14.9 13.9 94 1014.2 16.8 SW 16.8 0.0 4.3
12:45 14.8 13.9 94 1014.1 16.8 S 16.8 0.0 4.3
12:46 14.8 13.9 94 1014.1 16.8 S 16.8 0.0 4.3
12:47 14.8 13.9 94 1014.3 14.5 SW 16.8 0.0 4.3
12:48 14.8 13.9 94 1014.2 12.1 SW 16.8 0.0 4.3
12:49 14.8 13.9 94 1014.2 15.2 SSW 16.8 0.0 4.3
12:50 14.8 13.9 94 1014.1 15.2 SW 16.8 0.0 4.3
12:51 14.8 13.9 94 1014.1 11.4 S 16.8 0.0 4.3
12:52 14.8 13.9 94 1014.1 9.8 SW 16.8 0.0 4.3
12:54 14.8 13.9 94 1014.1 13.6 NW 16.8 0.0 4.3
12:55 14.7 13.8 94 1014.1 10.7 W 16.8 0.0 4.3
12:56 14.7 13.8 94 1014.1 10.7 W 15.2 0.0 4.3
12:57 14.8 13.9 94 1014.1 9.8 S 15.2 0.0 4.3
12:58 14.7 13.8 94 1014.3 11.4 SW 15.2 0.0 4.3
12:59 14.8 13.9 94 1014.1 12.1 SW 15.2 0.0 4.3
13:00 14.8 13.9 94 1014.2 11.4 NW 15.2 0.0 4.3
13:01 14.8 13.9 94 1014.2 11.4 NW 15.2 0.0 4.3
13:02 14.8 13.9 94 1014.0 11.4 NW 15.2 0.0 4.3
13:03 14.8 13.9 94 1014.0 13.0 SW 15.2 0.0 4.3
13:04 14.8 13.9 94 1013.9 13.0 SW 15.2 0.0 4.3
13:05 14.8 13.9 94 1014.1 12.1 SW 15.2 0.0 4.3
13:06 14.8 13.7 93 1014.2 10.7 NW 15.2 0.0 4.3
13:07 14.8 13.7 93 1014.0 9.8 W 13.0 0.0 4.3
13:08 14.9 13.8 93 1014.1 12.1 SW 13.0 0.0 4.3
13:09 14.9 13.9 94 1014.2 10.7 NW 13.0 0.0 4.3
13:10 14.9 13.9 94 1014.1 11.4 SW 13.0 0.0 4.3
13:11 14.9 13.9 94 1014.0 13.0 SW 13.0 0.0 4.3
13:12 15.0 14.0 94 1014.2 11.4 W 13.0 0.0 4.3
13:13 15.0 13.9 93 1014.0 9.8 S 13.0 0.0 4.3
13:14 15.0 13.9 93 1014.0 9.2 W 13.0 0.0 4.3
13:15 15.1 14.0 93 1014.2 9.2 SW 13.0 0.0 4.3
13:16 15.1 14.0 93 1014.2 7.6 SW 13.0 0.0 4.3
13:17 15.1 14.0 93 1014.0 13.0 SW 13.0 0.0 4.3
13:18 15.2 14.1 93 1014.1 13.0 SW 13.0 0.0 4.3
13:19 15.4 14.3 93 1014.1 9.8 SW 13.0 0.0 4.3
13:20 15.5 14.5 94 1014.2 8.3 SW 13.0 0.0 4.3
13:21 15.6 14.6 94 1014.1 13.0 SSW 13.0 0.0 4.3
13:22 15.6 14.6 94 1014.0 11.4 SW 13.0 0.0 4.3
13:23 15.7 14.6 93 1013.9 12.1 WSW 13.0 0.0 4.3
13:24 15.7 14.6 93 1014.0 14.5 S 14.5 0.0 4.3
13:25 15.7 14.6 93 1014.0 12.1 SW 14.5 0.0 4.3
13:26 15.7 14.6 93 1014.1 10.7 SW 14.5 0.0 4.3
13:27 15.7 14.6 93 1014.2 13.0 SW 14.5 0.0 4.3
13:28 15.9 14.8 93 1014.0 9.8 SW 14.5 0.0 4.3
13:29 16.0 14.9 93 1014.1 9.8 S 14.5 0.0 4.3
13:30 16.0 14.9 93 1014.1 9.8 S 14.5 0.0 4.3
13:31 16.1 15.0 93 1014.0 12.1 SW 14.5 0.0 4.3
13:32 16.0 14.9 93 1014.0 13.0 SW 14.5 0.0 4.3
13:33 16.0 14.9 93 1014.2 13.6 S 14.5 0.0 4.3
13:34 16.0 14.9 93 1014.1 15.9 SW 15.9 0.0 4.3
13:35 15.9 14.6 92 1014.0 15.9 SW 15.9 0.0 4.3
13:36 15.8 14.5 92 1014.0 14.5 SW 15.9 0.0 4.3
13:37 15.7 14.4 92 1014.2 11.4 SW 15.9 0.0 4.3
13:38 15.7 14.2 91 1014.1 12.1 SW 15.9 0.0 4.3
13:39 15.6 14.1 91 1014.2 12.1 SW 15.9 0.0 4.3
13:40 15.5 14.0 91 1014.2 12.1 S 15.9 0.0 4.3
13:41 15.5 14.0 91 1014.1 12.1 SW 15.9 0.0 4.3
13:42 15.4 13.9 91 1013.9 13.0 W 15.9 0.0 4.3
13:43 15.4 13.9 91 1014.2 11.4 SW 15.9 0.0 4.3
13:44 15.4 13.9 91 1014.1 12.1 W 15.9 0.0 4.3
13:45 15.4 13.9 91 1014.1 15.2 SW 15.9 0.0 4.3
13:46 15.4 13.9 91 1014.2 13.6 S 15.2 0.0 4.3
13:47 15.3 13.8 91 1014.0 12.1 SW 15.2 0.0 4.3
13:48 15.3 13.8 91 1014.2 9.2 W 15.2 0.0 4.3
13:49 15.3 13.8 91 1014.0 10.7 SW 15.2 0.0 4.3
13:50 15.4 13.9 91 1013.9 11.4 SW 15.2 0.0 4.3
13:51 15.4 13.9 91 1014.0 10.7 W 15.2 0.0 4.3
13:52 15.5 14.0 91 1014.2 11.4 SW 15.2 0.0 4.3
13:53 15.5 14.0 91 1014.3 15.9 SW 15.9 0.0 4.3
13:54 15.5 14.0 91 1014.0 14.5 WNW 15.9 0.0 4.3
13:55 15.5 14.0 91 1014.1 13.0 SW 15.9 0.0 4.3
13:56 15.5 14.0 91 1014.3 13.6 SW 15.9 0.0 4.3
13:57 15.4 13.9 91 1014.0 13.6 SW 15.9 0.0 4.3
13:58 15.4 13.9 91 1014.0 13.6 SW 15.9 0.0 4.3
13:59 15.4 13.9 91 1014.2 12.1 SW 15.9 0.0 4.3
14:00 15.3 13.8 91 1014.1 9.8 SW 15.9 0.0 4.3
14:01 15.3 13.8 91 1014.1 9.8 SW 15.9 0.0 4.3
14:02 15.3 13.8 91 1014.3 9.8 SW 15.9 0.0 4.3
14:03 15.3 13.8 91 1014.0 9.8 SW 15.9 0.0 4.3
14:04 15.3 13.8 91 1014.0 9.8 SW 14.5 0.0 4.3
14:06 15.2 13.7 91 1014.0 11.4 SW 15.2 0.0 4.3
14:07 15.2 13.7 91 1014.1 10.7 W 15.2 0.0 4.3
14:08 15.2 13.7 91 1014.0 11.4 SE 15.2 0.0 4.3
14:09 15.1 13.6 91 1014.1 12.1 S 15.2 0.0 4.3
14:10 15.1 13.6 91 1014.1 12.1 S 15.2 0.0 4.3
14:11 15.1 13.6 91 1014.1 13.0 S 15.2 0.0 4.3
14:12 15.1 13.6 91 1014.0 14.5 S 15.2 0.0 4.3
14:13 15.1 13.6 91 1014.1 13.0 SW 15.2 0.0 4.3
14:14 15.1 13.6 91 1014.3 10.7 S 15.2 0.0 4.3
14:15 15.0 13.5 91 1014.1 14.5 SW 15.2 0.0 4.3
14:16 15.0 13.5 91 1014.1 13.0 SW 14.5 0.0 4.3
14:17 15.0 13.5 91 1014.1 11.4 S 14.5 0.0 4.3
14:18 15.0 13.5 91 1013.9 13.0 SW 14.5 0.0 4.3
14:19 14.9 13.5 91 1014.0 9.2 SW 14.5 0.0 4.3
14:20 14.9 13.5 91 1014.3 9.2 SW 14.5 0.0 4.3
14:21 14.9 13.5 91 1014.1 9.8 SW 14.5 0.0 4.3
14:22 14.9 13.5 91 1014.3 11.4 SW 14.5 0.0 4.3
14:23 14.9 13.5 91 1014.0 13.6 SW 14.5 0.0 4.3
14:24 15.0 13.5 91 1014.1 11.4 SW 14.5 0.0 4.3
14:25 15.0 13.5 91 1014.0 8.3 SW 14.5 0.0 4.3
14:26 15.0 13.5 91 1014.0 10.7 SW 13.6 0.0 4.3
14:27 15.1 13.6 91 1014.0 12.1 SW 13.6 0.0 4.3
14:28 15.1 13.6 91 1014.0 13.0 SW 13.6 0.0 4.3
14:29 15.2 13.7 91 1014.0 13.0 W 13.6 0.0 4.3
14:30 15.2 13.7 91 1014.0 16.8 S 16.8 0.0 4.3
14:31 15.2 13.7 91 1014.0 13.6 SW 16.8 0.0 4.3
14:32 15.2 13.7 91 1014.2 10.7 S 16.8 0.0 4.3
14:33 15.2 13.7 91 1013.9 10.7 WSW 16.8 0.0 4.3
14:34 15.2 13.7 91 1014.1 11.4 SW 16.8 0.0 4.3
14:35 15.2 13.7 91 1013.9 12.1 SW 16.8 0.0 4.3
14:37 15.2 13.7 91 1013.9 17.4 SW 17.4 0.0 4.3
14:38 15.2 13.7 91 1013.7 14.5 SW 17.4 0.0 4.3
14:39 15.2 13.7 91 1013.9 17.4 SW 17.4 0.0 4.3
14:40 15.2 13.7 91 1013.9 13.6 SW 17.4 0.0 4.3
14:41 15.2 13.7 91 1013.7 11.4 NW 17.4 0.0 4.3
14:42 15.2 13.7 91 1013.8 12.1 S 17.4 0.0 4.3
14:43 15.2 13.7 91 1013.7 12.1 W 17.4 0.0 4.3
14:44 15.2 13.7 91 1013.8 13.0 W 17.4 0.0 4.3
14:45 15.2 13.7 91 1013.8 12.1 SW 17.4 0.0 4.3
14:46 15.2 13.7 91 1013.8 10.7 NW 17.4 0.0 4.3
14:47 15.2 13.7 91 1013.9 15.2 SW 17.4 0.0 4.3
14:48 15.2 13.7 91 1013.8 13.6 WSW 17.4 0.0 4.3
14:49 15.2 13.7 91 1013.8 13.6 SW 17.4 0.0 4.3
14:50 15.2 13.7 91 1013.8 14.5 NW 17.4 0.0 4.3
14:51 15.2 13.7 91 1013.8 14.5 SW 15.2 0.0 4.3
14:52 15.2 13.7 91 1013.7 12.1 S 15.2 0.0 4.3
14:53 15.2 13.7 91 1013.8 17.4 SW 17.4 0.0 4.3
14:54 15.2 13.7 91 1013.8 15.2 S 17.4 0.0 4.3
14:55 15.2 13.7 91 1013.9 14.5 SW 17.4 0.0 4.3
14:56 15.1 13.5 90 1013.8 15.9 SW 17.4 0.0 4.3
14:57 15.1 13.5 90 1013.8 14.5 S 17.4 0.0 4.3
14:58 15.1 13.5 90 1013.8 11.4 SW 17.4 0.0 4.3
14:59 15.0 13.4 90 1013.7 10.7 SW 17.4 0.0 4.3
15:00 15.0 13.4 90 1013.8 9.8 SW 17.4 0.0 4.3
15:01 15.0 13.4 90 1013.7 9.8 SW 17.4 0.0 4.3
15:02 15.0 13.4 90 1013.8 9.8 SW 17.4 0.0 4.3
15:03 15.0 13.4 90 1013.9 9.8 SW 17.4 0.0 4.3
15:04 15.0 13.4 90 1013.9 9.8 SW 15.9 0.0 4.3
15:05 15.0 13.4 90 1013.7 9.8 SW 15.9 0.0 4.3
15:06 15.1 13.5 90 1013.7 13.0 SW 15.9 0.0 4.3
15:08 15.2 13.7 91 1013.6 15.2 SW 16.8 0.0 4.3
15:09 15.3 13.8 91 1013.7 15.9 W 16.8 0.0 4.3
15:10 15.3 13.8 91 1013.8 15.9 SW 16.8 0.0 4.3
15:11 15.3 13.8 91 1013.7 13.6 SW 16.8 0.0 4.3
15:12 15.3 13.8 91 1013.8 15.2 S 16.8 0.0 4.3
15:13 15.2 13.7 91 1013.7 17.4 SW 17.4 0.0 4.3
15:14 15.2 13.6 90 1013.9 14.5 S 17.4 0.0 4.3
15:15 15.2 13.6 90 1013.8 14.5 W 17.4 0.0 4.3
15:16 15.1 13.5 90 1013.8 11.4 SW 17.4 0.0 4.3
15:17 15.1 13.5 90 1013.8 11.4 SW 17.4 0.0 4.3
15:18 15.1 13.5 90 1013.7 9.8 W 17.4 0.0 4.3
15:19 15.1 13.5 90 1013.8 12.1 S 17.4 0.0 4.3
15:20 15.1 13.5 90 1014.0 13.0 SW 17.4 0.0 4.3
15:21 15.1 13.5 90 1013.8 16.8 SSW 17.4 0.0 4.3
15:22 15.1 13.5 90 1013.7 15.9 SW 17.4 0.0 4.3
15:23 15.1 13.5 90 1013.7 11.4 SW 17.4 0.0 4.3
15:24 15.1 13.5 90 1013.6 11.4 SW 16.8 0.0 4.3
15:25 15.1 13.5 90 1013.8 12.1 S 16.8 0.0 4.3
15:26 15.1 13.5 90 1013.6 9.8 SW 16.8 0.0 4.3
15:27 15.1 13.5 90 1013.7 7.6 W 16.8 0.0 4.3
15:28 15.1 13.5 90 1013.7 15.2 W 16.8 0.0 4.3
15:29 15.1 13.5 90 1013.6 13.0 SW 16.8 0.0 4.3
15:30 15.1 13.5 90 1013.7 12.1 W 16.8 0.0 4.3
15:31 15.1 13.6 91 1013.8 13.0 SW 15.9 0.0 4.3
15:32 15.1 13.6 91 1013.8 12.1 SW 15.9 0.0 4.3
15:33 15.1 13.6 91 1013.7 12.1 SW 15.2 0.0 4.3
15:34 15.1 13.6 91 1013.7 9.8 SW 15.2 0.0 4.3
15:35 15.1 13.6 91 1013.9 12.1 SW 15.2 0.0 4.3
15:36 15.1 13.6 91 1013.7 13.0 SW 15.2 0.0 4.3
15:37 15.1 13.6 91 1013.8 11.4 SSW 15.2 0.0 4.3
15:38 15.1 13.6 91 1013.6 11.4 SW 15.2 0.0 4.3
15:39 15.1 13.6 91 1013.7 7.6 SW 13.0 0.0 4.3
15:40 15.2 13.7 91 1013.7 10.7 SSW 13.0 0.0 4.3
15:41 15.2 13.7 91 1013.6 10.7 SW 13.0 0.0 4.3
15:42 15.2 13.7 91 1013.7 10.7 SW 13.0 0.0 4.3
15:43 15.3 13.8 91 1013.6 15.9 SW 15.9 0.0 4.3
15:44 15.3 13.8 91 1013.8 15.9 S 15.9 0.0 4.3
15:45 15.3 13.8 91 1013.9 12.1 SW 15.9 0.0 4.3
15:46 15.3 13.8 91 1013.7 14.5 S 15.9 0.0 4.3
15:47 15.2 13.7 91 1013.8 12.1 WNW 15.9 0.0 4.3
15:48 15.2 13.7 91 1013.9 15.2 SW 15.9 0.0 4.3
15:49 15.2 13.7 91 1013.6 15.2 SW 15.9 0.0 4.3
15:50 15.2 13.7 91 1013.7 13.0 N 15.9 0.0 4.3
15:51 15.1 13.5 90 1013.8 15.9 SW 15.9 0.0 4.3
15:52 15.1 13.5 90 1013.7 13.0 WSW 15.9 0.0 4.3
15:53 15.1 13.5 90 1013.8 14.5 S 15.9 0.0 4.3
15:54 15.2 13.6 90 1013.7 15.9 WSW 15.9 0.0 4.3
15:56 15.2 13.6 90 1013.8 12.1 S 15.9 0.0 4.3
15:57 15.2 13.6 90 1013.9 15.9 SW 15.9 0.0 4.3
15:58 15.2 13.6 90 1013.7 15.9 SW 15.9 0.0 4.3
15:59 15.1 13.5 90 1013.8 16.8 S 16.8 0.0 4.3
16:00 15.1 13.5 90 1013.8 16.8 S 16.8 0.0 4.3
16:01 15.1 13.5 90 1013.8 16.8 S 16.8 0.0 4.3
16:02 15.1 13.5 90 1013.8 16.8 S 16.8 0.0 4.3
16:03 15.1 13.5 90 1014.0 16.8 S 16.8 0.0 4.3
16:04 15.1 13.5 90 1013.9 16.8 S 16.8 0.0 4.3
16:05 15.1 13.5 90 1013.8 16.8 S 16.8 0.0 4.3
16:06 15.1 13.5 90 1013.7 13.6 SW 16.8 0.0 4.3
16:07 15.0 13.4 90 1014.0 11.4 W 16.8 0.0 4.3
16:08 15.0 13.4 90 1013.7 11.4 W 16.8 0.0 4.3
16:09 15.0 13.4 90 1014.0 13.0 W 16.8 0.0 4.3
16:10 15.0 13.4 90 1013.9 13.6 SW 16.8 0.0 4.3
16:11 15.0 13.4 90 1013.9 13.6 SW 16.8 0.0 4.3
16:12 14.9 13.3 90 1013.7 13.6 SW 16.8 0.0 4.3
16:13 14.9 13.3 90 1014.0 14.5 SW 16.8 0.0 4.3
16:14 14.9 13.3 90 1013.8 15.9 SW 16.8 0.0 4.3
16:15 14.9 13.3 90 1013.9 15.9 SW 15.9 0.0 4.3
16:16 14.8 13.2 90 1013.9 10.7 W 15.9 0.0 4.3
16:17 14.8 13.2 90 1013.9 10.7 W 15.9 0.0 4.3
16:18 14.8 13.2 90 1013.9 10.7 W 15.9 0.0 4.3
16:19 14.7 12.9 89 1013.8 12.1 SW 15.9 0.0 4.3
16:20 14.7 12.9 89 1013.9 12.1 SW 15.9 0.0 4.3
16:21 14.7 12.9 89 1013.7 12.1 SW 15.9 0.0 4.3
16:22 14.7 12.9 89 1014.1 12.1 SW 15.9 0.0 4.3
16:23 14.8 13.0 89 1014.0 13.0 SW 15.9 0.0 4.3
16:24 14.8 13.0 89 1014.0 13.0 NW 15.9 0.0 4.3
16:25 14.8 13.0 89 1014.0 13.6 SW 15.9 0.0 4.3
16:26 14.8 13.0 89 1014.0 15.2 S 15.2 0.0 4.3
16:27 14.8 13.0 89 1014.0 15.2 S 15.2 0.0 4.3
16:28 14.8 13.0 89 1013.9 13.0 SW 15.2 0.0 4.3
16:29 14.8 13.0 89 1014.0 8.3 SW 15.2 0.0 4.3
16:30 14.8 13.2 90 1014.0 10.7 SW 15.2 0.0 4.3
16:31 14.8 13.2 90 1014.2 10.7 SW 15.2 0.0 4.3
16:32 14.8 13.2 90 1014.1 13.6 SW 15.2 0.0 4.3
16:33 14.8 13.2 90 1013.9 13.6 SW 15.2 0.0 4.3
16:34 14.8 13.2 90 1014.2 10.7 SW 15.2 0.0 4.3
16:35 14.8 13.2 90 1014.0 6.9 SW 15.2 0.0 4.3
16:36 14.8 13.2 90 1013.9 6.9 SW 15.2 0.0 4.3
16:37 14.8 13.2 90 1013.9 9.8 SW 15.2 0.0 4.3
16:39 14.8 13.2 90 1013.9 13.6 S 13.6 0.0 4.3
16:40 14.8 13.2 90 1014.0 9.8 WSW 13.6 0.0 4.3
16:41 14.8 13.2 90 1014.0 13.0 SW 13.6 0.0 4.3
16:42 14.8 13.2 90 1014.1 13.0 SW 13.6 0.0 4.3
16:43 14.7 13.1 90 1014.0 13.6 S 13.6 0.0 4.3
16:44 14.7 13.1 90 1014.1 14.5 W 14.5 0.0 4.3
16:45 14.7 13.1 90 1014.1 14.5 W 14.5 0.0 4.3
16:46 14.7 13.1 90 1013.9 11.4 SW 14.5 0.0 4.3
16:47 14.7 13.1 90 1014.0 12.1 SW 14.5 0.0 4.3
16:48 14.7 13.1 90 1014.1 12.1 SW 14.5 0.0 4.3
16:49 14.6 13.0 90 1014.0 9.8 SW 14.5 0.0 4.3
16:50 14.6 13.0 90 1014.0 11.4 SW 14.5 0.0 4.3
16:51 14.6 13.0 90 1014.0 8.3 SW 14.5 0.0 4.3
16:53 14.7 13.1 90 1013.8 13.6 W 14.5 0.0 4.3
16:54 14.7 13.1 90 1014.1 12.1 SW 14.5 0.0 4.3
16:55 14.7 13.1 90 1013.9 12.1 W 13.6 0.0 4.3
16:56 14.7 13.1 90 1013.9 12.1 W 13.6 0.0 4.3
16:57 14.7 13.1 90 1014.0 12.1 W 13.6 0.0 4.3
16:58 14.7 13.1 90 1014.0 12.1 W 13.6 0.0 4.3
16:59 14.7 13.1 90 1013.8 8.3 SW 13.6 0.0 4.3
17:00 14.7 13.1 90 1013.9 8.3 SW 13.6 0.0 4.3
17:01 14.7 13.1 90 1013.9 8.3 SW 13.6 0.0 4.3
17:02 14.7 13.1 90 1013.9 8.3 SW 13.6 0.0 4.3
17:03 14.6 13.0 90 1013.9 14.5 SW 14.5 0.0 4.3
17:04 14.6 13.0 90 1014.2 9.2 SW 14.5 0.0 4.3
17:05 14.5 12.9 90 1014.0 7.6 WNW 14.5 0.0 4.3
17:06 14.5 12.9 90 1014.2 7.6 WNW 14.5 0.0 4.3
17:07 14.5 12.9 90 1013.9 13.6 W 14.5 0.0 4.3
17:08 14.5 12.9 90 1013.9 10.7 SW 14.5 0.0 4.3
17:09 14.5 12.9 90 1013.8 10.7 SW 14.5 0.0 4.3
17:10 14.5 12.9 90 1014.0 11.4 W 14.5 0.0 4.3
17:11 14.5 12.9 90 1014.1 11.4 WSW 14.5 0.0 4.3
17:12 14.5 12.9 90 1014.2 10.7 SW 14.5 0.0 4.3
17:13 14.4 12.8 90 1014.0 8.3 NW 14.5 0.0 4.3
17:14 14.4 12.8 90 1014.0 9.2 SW 14.5 0.0 4.3
17:15 14.4 12.8 90 1014.1 7.6 SW 14.5 0.0 4.3
17:16 14.4 12.8 90 1014.1 9.8 S 14.5 0.0 4.3
17:17 14.4 12.8 90 1014.1 9.8 S 13.6 0.0 4.3
17:18 14.4 12.8 90 1013.9 9.8 SW 13.6 0.0 4.3
17:19 14.4 12.8 90 1013.9 8.3 SE 11.4 0.0 4.3
17:20 14.4 13.0 91 1014.0 10.7 S 11.4 0.0 4.3
17:21 14.4 13.0 91 1014.1 10.7 SW 11.4 0.0 4.3
17:22 14.4 13.0 91 1013.8 10.7 SW 10.7 0.0 4.3
17:23 14.3 12.9 91 1014.1 9.8 SW 10.7 0.0 4.3
17:24 14.3 12.9 91 1013.9 11.4 SW 11.4 0.0 4.3
17:25 14.3 12.9 91 1014.0 10.7 SW 12.1 0.0 4.3
17:26 14.3 12.9 91 1014.3 13.6 SW 13.6 0.0 4.3
17:27 14.3 12.9 91 1013.9 11.4 W 13.6 0.0 4.3
17:28 14.3 12.9 91 1013.9 10.7 W 13.6 0.0 4.3
17:29 14.3 12.9 91 1013.9 13.0 SW 13.6 0.0 4.3
17:30 14.2 12.8 91 1013.9 9.8 S 13.6 0.0 4.3
17:31 14.2 12.8 91 1013.9 12.1 SW 13.6 0.0 4.3
17:32 14.2 12.8 91 1014.1 12.1 SW 13.6 0.0 4.3
17:33 14.2 12.8 91 1013.9 12.1 SW 13.6 0.0 4.3
17:34 14.2 12.8 91 1014.0 12.1 SW 13.6 0.0 4.3
17:35 14.2 12.8 91 1013.8 9.2 NW 13.6 0.0 4.3
17:36 14.2 12.8 91 1014.0 9.2 NW 13.6 0.0 4.3
17:37 14.2 12.8 91 1013.9 9.2 NW 13.0 0.0 4.3
17:38 14.2 12.8 91 1013.9 9.2 NW 13.0 0.0 4.3
17:39 14.2 12.8 91 1014.1 11.4 NW 13.0 0.0 4.3
17:40 14.2 12.8 91 1014.1 9.8 S 12.1 0.0 4.3
17:41 14.2 12.8 91 1014.1 13.6 SW 13.6 0.0 4.3
17:42 14.2 12.8 91 1013.9 10.7 SW 13.6 0.0 4.3
17:43 14.2 12.8 91 1013.9 12.1 WSW 13.6 0.0 4.3
17:44 14.2 12.8 91 1014.1 10.7 SW 13.6 0.0 4.3
17:45 14.2 12.8 91 1014.1 12.1 SW 13.6 0.0 4.3
17:46 14.2 12.8 91 1014.1 12.1 SW 13.6 0.0 4.3
17:47 14.1 12.7 91 1013.9 13.0 SW 13.6 0.0 4.3
17:48 14.1 12.7 91 1013.7 13.0 SW 13.6 0.0 4.3
17:49 14.1 12.7 91 1013.8 10.7 SW 13.6 0.0 4.3
17:50 14.1 12.7 91 1014.2 10.7 SW 13.6 0.0 4.3
17:51 14.1 12.7 91 1014.1 11.4 W 13.6 0.0 4.3
17:52 14.1 12.7 91 1014.1 11.4 SSE 13.0 0.0 4.3
17:53 14.1 12.7 91 1014.2 12.1 WSW 13.0 0.0 4.3
17:54 14.1 12.7 91 1013.8 9.2 NW 13.0 0.0 4.3
17:55 14.1 12.7 91 1014.2 7.6 SW 13.0 0.0 4.3
17:56 14.1 12.7 91 1014.0 15.2 SW 15.2 0.0 4.3
17:57 14.1 12.7 91 1014.1 12.1 W 15.2 0.0 4.3
17:58 14.1 12.7 91 1014.0 15.9 SW 15.9 0.0 4.3
17:59 14.0 12.6 91 1014.1 13.6 W 15.9 0.0 4.3
18:00 14.0 12.6 91 1014.1 11.4 SW 15.9 0.0 4.3
18:01 14.0 12.6 91 1014.1 11.4 SW 15.9 0.0 4.3
18:02 14.0 12.6 91 1014.1 11.4 SW 15.9 0.0 4.3
18:03 14.0 12.6 91 1014.1 11.4 SW 15.9 0.0 4.3
18:04 14.0 12.6 91 1014.2 11.4 SW 15.9 0.0 4.3
18:05 14.0 12.6 91 1014.0 11.4 SW 15.9 0.0 4.3
18:06 14.0 12.6 91 1014.2 11.4 SW 15.9 0.0 4.3
18:07 14.0 12.6 91 1014.0 9.2 SW 15.9 0.0 4.3
18:08 14.0 12.6 91 1014.2 11.4 SW 15.9 0.0 4.3
18:09 14.0 12.6 91 1014.0 11.4 SW 11.4 0.0 4.3
18:10 14.0 12.6 91 1014.1 12.1 S 12.1 0.0 4.3
18:11 14.0 12.6 91 1014.0 13.6 S 13.6 0.0 4.3
18:12 14.0 12.6 91 1014.1 13.6 S 13.6 0.0 4.3
18:13 14.0 12.6 91 1014.1 13.6 SSE 13.6 0.0 4.3
18:14 14.0 12.6 91 1014.0 15.2 SE 15.2 0.0 4.3
18:15 14.0 12.6 91 1014.0 11.4 SW 15.2 0.0 4.3
18:16 14.0 12.7 92 1014.2 13.6 SW 15.2 0.0 4.3
18:17 14.0 12.7 92 1014.1 13.6 SW 15.2 0.0 4.3
18:18 14.0 12.7 92 1014.1 14.5 SW 15.2 0.0 4.3
18:19 14.0 12.7 92 1014.1 11.4 SW 15.2 0.0 4.3
18:20 14.0 12.7 92 1014.0 11.4 S 15.2 0.0 4.3
18:21 14.0 12.7 92 1014.2 11.4 S 15.2 0.0 4.3
18:22 14.0 12.7 92 1014.0 11.4 SW 15.2 0.0 4.3
18:23 14.0 12.7 92 1014.1 9.8 S 15.2 0.0 4.3
18:25 13.9 12.6 92 1014.2 12.1 SW 14.5 0.0 4.3
18:26 13.9 12.6 92 1014.0 17.4 S 17.4 0.0 4.3
18:27 13.9 12.6 92 1014.2 17.4 S 17.4 0.0 4.3
18:28 13.9 12.6 92 1014.1 12.1 S 17.4 0.0 4.3
18:29 13.9 12.6 92 1014.2 13.6 S 17.4 0.0 4.3
18:30 13.9 12.6 92 1014.1 11.4 SW 17.4 0.0 4.3
18:31 13.9 12.8 93 1014.2 14.5 SSW 17.4 0.0 4.3
18:32 13.9 12.8 93 1014.1 9.8 NW 17.4 0.0 4.3
18:33 13.9 12.8 93 1014.0 9.8 SW 17.4 0.0 4.3
18:34 13.9 12.8 93 1014.2 13.6 SW 17.4 0.0 4.3
18:35 13.9 12.8 93 1014.2 10.7 SW 17.4 0.0 4.3
18:36 13.9 12.8 93 1014.4 11.4 S 17.4 0.0 4.3
18:37 13.9 12.8 93 1014.2 8.3 SW 17.4 0.0 4.3
18:38 13.9 12.8 93 1014.2 8.3 NW 15.9 0.0 4.3
18:39 13.9 12.8 93 1014.2 13.6 S 14.5 0.0 4.3
18:40 13.9 12.8 93 1014.3 13.0 SW 14.5 0.0 4.3
18:41 13.9 12.8 93 1014.4 13.0 S 14.5 0.0 4.3
18:42 13.9 12.8 93 1014.3 12.1 SW 14.5 0.0 4.3
18:43 13.9 12.8 93 1014.1 12.1 SW 14.5 0.0 4.3
18:44 13.8 12.7 93 1014.1 13.0 S 14.5 0.0 4.3
18:45 13.8 12.7 93 1014.4 12.1 S 14.5 0.0 4.3
18:46 13.8 12.7 93 1014.4 12.1 S 14.5 0.0 4.3
18:47 13.8 12.7 93 1014.3 13.6 SW 15.2 0.0 4.3
18:48 13.8 12.7 93 1014.2 12.1 SW 15.2 0.0 4.3
18:49 13.8 12.7 93 1014.1 13.6 SW 15.2 0.0 4.3
18:50 13.8 12.7 93 1014.3 13.6 SW 15.2 0.0 4.3
18:51 13.8 12.7 93 1014.2 13.0 S 15.2 0.0 4.3
18:52 13.8 12.9 94 1014.2 10.7 S 15.2 0.0 4.3
18:53 13.8 12.9 94 1014.2 11.4 S 15.2 0.0 4.3
18:54 13.8 12.9 94 1014.2 11.4 SE 15.2 0.0 4.3
18:55 13.8 12.9 94 1014.2 9.8 SE 15.2 0.0 4.3
18:56 13.8 12.9 94 1014.1 8.3 SW 15.2 0.0 4.3
18:57 13.8 12.9 94 1014.2 10.7 SW 13.6 0.0 4.3
18:58 13.8 12.9 94 1014.5 9.2 S 13.6 0.0 4.3
18:59 13.8 12.9 94 1014.1 7.6 S 13.6 0.0 4.3
19:00 13.8 12.9 94 1014.2 9.8 SW 13.6 0.0 4.3
19:01 13.8 12.9 94 1014.2 9.8 SW 13.6 0.0 4.3
19:02 13.8 12.9 94 1014.1 9.8 SW 13.6 0.0 4.3
19:03 13.8 12.9 94 1014.2 9.8 SW 13.6 0.0 4.3
19:04 13.8 12.9 94 1014.4 9.8 SW 11.4 0.0 4.3
19:05 13.8 12.9 94 1014.2 9.8 SW 10.7 0.0 4.3
19:06 13.8 12.9 94 1014.2 9.8 SW 10.7 0.0 4.3
19:07 13.7 12.8 94 1014.1 11.4 SSW 11.4 0.0 4.3
19:08 13.7 12.8 94 1014.3 11.4 SSW 11.4 0.0 4.3
19:09 13.7 12.8 94 1014.3 12.1 S 12.1 0.0 4.3
19:10 13.7 12.8 94 1014.3 13.6 S 13.6 0.0 4.3
19:11 13.7 12.8 94 1014.4 9.8 S 13.6 0.0 4.3
19:12 13.7 12.8 94 1014.2 9.2 SSW 13.6 0.0 4.3
19:13 13.7 12.8 94 1014.2 9.2 SW 13.6 0.0 4.3
19:14 13.7 12.8 94 1014.1 9.8 S 13.6 0.0 4.3
19:15 13.7 12.8 94 1014.3 9.8 S 13.6 0.0 4.3
19:16 13.7 12.8 94 1014.2 10.7 SW 13.6 0.0 4.3
19:17 13.7 12.8 94 1014.2 11.4 SSW 13.6 0.0 4.3
19:18 13.7 12.8 94 1014.5 11.4 S 13.6 0.0 4.3
19:19 13.7 12.8 94 1014.4 11.4 SW 13.6 0.0 4.3
19:20 13.7 12.8 94 1014.3 12.1 S 13.6 0.0 4.3
19:21 13.7 12.8 94 1014.2 12.1 SW 12.1 0.0 4.3
19:22 13.7 12.8 94 1014.4 12.1 S 12.1 0.0 4.3
19:23 13.7 12.8 94 1014.3 10.7 S 12.1 0.0 4.3
19:24 13.7 12.8 94 1014.4 12.1 SSW 12.1 0.0 4.3
19:25 13.7 12.9 95 1014.2 9.2 SW 12.1 0.0 4.3
19:26 13.7 12.9 95 1014.4 9.2 SSW 12.1 0.0 4.3
19:27 13.7 12.9 95 1014.3 11.4 SW 12.1 0.0 4.3
19:28 13.7 12.9 95 1014.3 9.8 S 12.1 0.0 4.3
19:29 13.7 12.9 95 1014.4 10.7 SW 12.1 0.0 4.3
19:30 13.7 12.9 95 1014.3 10.7 S 12.1 0.0 4.3
19:31 13.7 12.9 95 1014.2 11.4 S 12.1 0.0 4.3
19:32 13.7 12.9 95 1014.3 10.7 WSW 12.1 0.0 4.3
19:33 13.7 12.9 95 1014.3 9.8 S 12.1 0.0 4.3
19:34 13.7 12.9 95 1014.3 9.8 S 12.1 0.0 4.3
19:35 13.7 12.9 95 1014.7 12.1 NW 12.1 0.0 4.3
19:36 13.7 12.9 95 1014.6 11.4 S 12.1 0.0 4.3
19:37 13.7 12.9 95 1014.4 13.0 SW 13.0 0.0 4.3
19:38 13.7 12.9 95 1014.7 9.8 S 13.0 0.0 4.3
19:39 13.7 12.9 95 1014.5 10.7 SSW 13.0 0.0 4.3
19:40 13.7 12.9 95 1014.6 9.2 SW 13.0 0.0 4.3
19:41 13.7 12.9 95 1014.5 10.7 WSW 13.0 0.0 4.3
19:42 13.7 12.9 95 1014.4 9.2 W 13.0 0.0 4.3
19:43 13.7 12.9 95 1014.2 12.1 SW 13.0 0.0 4.3
19:44 13.7 12.9 95 1014.4 13.0 WSW 13.0 0.0 4.3
19:45 13.7 12.9 95 1014.4 10.7 S 13.0 0.0 4.3
19:46 13.7 12.9 95 1014.5 10.7 S 13.0 0.0 4.3
19:47 13.6 12.8 95 1014.6 9.8 S 13.0 0.0 4.3
19:48 13.6 12.8 95 1014.4 11.4 WSW 13.0 0.0 4.3
19:49 13.6 12.8 95 1014.4 11.4 WSW 13.0 0.0 4.3
19:50 13.6 12.8 95 1014.4 9.8 S 13.0 0.0 4.3
19:51 13.6 12.8 95 1014.4 9.2 SW 13.0 0.0 4.3
19:52 13.6 12.8 95 1014.5 6.9 S 13.0 0.0 4.3
19:53 13.6 12.8 95 1014.6 8.3 S 13.0 0.0 4.3
19:54 13.6 12.8 95 1014.7 8.3 WSW 13.0 0.0 4.3
19:55 13.6 12.8 95 1014.5 8.3 SW 11.4 0.0 4.3
19:56 13.6 12.8 95 1014.7 11.4 S 11.4 0.0 4.3
19:57 13.5 12.7 95 1014.7 9.2 SW 11.4 0.0 4.3
19:58 13.5 12.7 95 1014.7 9.2 S 11.4 0.0 4.3
19:59 13.5 12.7 95 1014.7 9.8 SW 11.4 0.0 4.3
20:00 13.5 12.7 95 1014.7 9.2 SW 11.4 0.0 4.3
20:01 13.5 12.7 95 1014.7 9.2 S 11.4 0.0 4.3
20:02 13.5 12.7 95 1014.6 8.3 S 11.4 0.0 4.3
20:03 13.5 12.7 95 1014.5 7.6 SW 11.4 0.0 4.3
20:04 13.5 12.7 95 1014.7 6.9 NW 11.4 0.0 4.3
20:05 13.5 12.7 95 1014.8 9.2 SW 11.4 0.0 4.3
20:06 13.5 12.7 95 1014.7 7.6 S 11.4 0.0 4.3
20:07 13.5 12.7 95 1014.7 9.8 NW 9.8 0.0 4.3
20:08 13.4 12.6 95 1014.6 9.8 SW 9.8 0.0 4.3
20:09 13.4 12.6 95 1014.5 9.8 SW 9.8 0.0 4.3
20:10 13.4 12.6 95 1014.6 6.9 SSE 9.8 0.0 4.3
20:11 13.4 12.6 95 1014.5 6.0 SW 9.8 0.0 4.3
20:12 13.4 12.6 95 1014.5 6.0 NW 9.8 0.0 4.3
20:13 13.4 12.6 95 1014.6 4.5 SSW 9.8 0.0 4.3
20:14 13.4 12.6 95 1014.6 6.9 SSW 9.8 0.0 4.3
20:15 13.4 12.6 95 1014.5 8.3 SW 9.8 0.0 4.3
20:16 13.4 12.6 95 1014.7 8.3 SW 9.8 0.0 4.3
20:17 13.4 12.6 95 1014.5 9.2 S 9.8 0.0 4.3
20:18 13.4 12.6 95 1014.6 9.2 S 9.8 0.0 4.3
20:19 13.4 12.6 95 1014.6 9.2 WSW 9.8 0.0 4.3
20:20 13.4 12.6 95 1014.6 9.2 W 9.2 0.0 4.3
20:21 13.3 12.5 95 1014.6 7.6 S 9.2 0.0 4.3
20:22 13.3 12.5 95 1014.4 6.9 SW 9.2 0.0 4.3
20:23 13.3 12.5 95 1014.5 8.3 SW 9.2 0.0 4.3
20:24 13.3 12.5 95 1014.4 7.6 NW 9.2 0.0 4.3
20:25 13.3 12.5 95 1014.5 6.0 NW 9.2 0.0 4.3
20:26 13.3 12.5 95 1014.6 6.9 WSW 9.2 0.0 4.3
20:27 13.3 12.5 95 1014.5 6.9 WSW 9.2 0.0 4.3
20:28 13.3 12.5 95 1014.5 6.9 SSW 9.2 0.0 4.3
20:29 13.3 12.5 95 1014.4 6.9 S 9.2 0.0 4.3
20:30 13.3 12.5 95 1014.4 9.8 SW 9.8 0.0 4.3
20:31 13.3 12.5 95 1014.8 9.8 SW 9.8 0.0 4.3
20:32 13.3 12.5 95 1014.7 6.9 SW 9.8 0.0 4.3
20:33 13.3 12.5 95 1014.5 6.0 S 9.8 0.0 4.3
20:34 13.3 12.5 95 1014.5 6.0 S 9.8 0.0 4.3
20:35 13.3 12.5 95 1014.5 11.4 SW 11.4 0.0 4.3
20:36 13.3 12.5 95 1014.6 6.9 S 11.4 0.0 4.3
20:37 13.3 12.5 95 1014.4 6.9 SW 11.4 0.0 4.3
20:38 13.3 12.5 95 1014.4 8.3 SW 11.4 0.0 4.3
20:39 13.3 12.5 95 1014.6 7.6 SW 11.4 0.0 4.3
20:40 13.3 12.5 95 1014.5 8.3 S 11.4 0.0 4.3
20:41 13.3 12.5 95 1014.4 8.3 S 11.4 0.0 4.3
20:42 13.3 12.5 95 1014.2 7.6 S 11.4 0.0 4.3
20:43 13.3 12.5 95 1014.4 6.9 S 11.4 0.0 4.3
20:44 13.3 12.5 95 1014.6 5.4 SW 11.4 0.0 4.3
20:45 13.3 12.5 95 1014.4 6.9 S 8.3 0.0 4.3
20:46 13.3 12.5 95 1014.4 8.3 NW 8.3 0.0 4.3
20:47 13.3 12.5 95 1014.3 9.8 SW 9.8 0.0 4.3
20:48 13.3 12.5 95 1014.3 7.6 S 9.8 0.0 4.3
20:49 13.3 12.5 95 1014.3 7.6 S 9.8 0.0 4.3
20:50 13.3 12.5 95 1014.6 8.3 SW 9.8 0.0 4.3
20:51 13.3 12.5 95 1014.5 7.6 SW 9.8 0.0 4.3
20:52 13.3 12.5 95 1014.3 9.8 SW 9.8 0.0 4.3
20:53 13.3 12.5 95 1014.5 8.3 NW 9.8 0.0 4.3
20:54 13.3 12.5 95 1014.3 10.7 S 10.7 0.0 4.3
20:55 13.3 12.5 95 1014.4 5.4 SW 10.7 0.0 4.3
20:56 13.3 12.5 95 1014.6 7.6 SW 10.7 0.0 4.3
20:57 13.3 12.5 95 1014.5 8.3 SW 10.7 0.0 4.3
20:58 13.3 12.5 95 1014.3 7.6 SW 10.7 0.0 4.3
20:59 13.3 12.5 95 1014.4 5.4 SW 10.7 0.0 4.3
21:00 13.3 12.5 95 1014.2 10.7 NW 10.7 0.0 4.3
21:01 13.3 12.5 95 1014.3 10.7 NW 10.7 0.0 4.3
21:02 13.3 12.5 95 1014.4 10.7 NW 10.7 0.0 4.3
21:03 13.3 12.5 95 1014.6 10.7 NW 10.7 0.0 4.3
21:04 13.3 12.5 95 1014.3 10.7 NW 10.7 0.0 4.3
21:05 13.3 12.5 95 1014.4 10.7 NW 10.7 0.0 4.3
21:06 13.3 12.5 95 1014.5 10.7 NW 10.7 0.0 4.3
21:07 13.3 12.5 95 1014.5 6.0 S 10.7 0.0 4.3
21:08 13.3 12.5 95 1014.3 6.0 SW 10.7 0.0 4.3
21:09 13.3 12.5 95 1014.4 7.6 NE 10.7 0.0 4.3
21:10 13.3 12.5 95 1014.3 7.6 SW 10.7 0.0 4.3
21:11 13.3 12.7 96 1014.5 9.2 SW 10.7 0.0 4.3
21:12 13.3 12.7 96 1014.3 9.8 SW 10.7 0.0 4.3
21:13 13.3 12.7 96 1014.2 9.8 SW 10.7 0.0 4.3
21:14 13.3 12.7 96 1014.4 7.6 S 10.7 0.0 4.3
21:15 13.3 12.7 96 1014.5 9.8 S 10.7 0.0 4.3
21:16 13.3 12.7 96 1014.2 9.8 SW 10.7 0.0 4.3
21:17 13.3 12.7 96 1014.2 13.6 S 13.6 0.0 4.3
21:18 13.4 12.8 96 1014.3 13.0 SW 13.6 0.0 4.3
21:19 13.4 12.8 96 1014.3 13.0 NW 13.6 0.0 4.3
21:20 13.4 12.8 96 1014.4 9.2 WNW 13.6 0.0 4.3
21:21 13.4 12.8 96 1014.4 6.9 SW 13.6 0.0 4.3
21:22 13.4 12.8 96 1014.4 6.9 SW 13.6 0.0 4.3
21:23 13.4 12.8 96 1014.3 9.8 WSW 13.6 0.0 4.3
21:24 13.4 12.8 96 1014.2 6.9 SW 13.6 0.0 4.3
21:25 13.4 12.8 96 1014.3 5.4 SW 13.6 0.0 4.3
21:26 13.4 12.8 96 1014.1 6.9 SW 13.6 0.0 4.3
21:27 13.4 12.8 96 1014.2 5.4 NW 13.6 0.0 4.3
21:28 13.4 12.8 96 1014.3 6.0 WSW 13.0 0.0 4.3
21:29 13.4 12.8 96 1014.1 6.0 SW 13.0 0.0 4.3
21:31 13.4 12.8 96 1014.1 8.3 NW 9.8 0.0 4.3
21:32 13.4 12.8 96 1014.2 10.7 SSW 10.7 0.0 4.3
21:33 13.4 12.8 96 1014.2 12.1 SW 12.1 0.0 4.3
21:34 13.4 12.8 96 1014.3 12.1 SSW 12.1 0.0 4.3
21:35 13.5 12.9 96 1014.1 14.5 SW 14.5 0.0 4.3
21:36 13.5 12.9 96 1014.1 11.4 SW 14.5 0.0 4.3
21:37 13.5 12.9 96 1014.1 11.4 SW 14.5 0.0 4.3
21:38 13.5 12.9 96 1014.1 11.4 SW 14.5 0.0 4.3
21:39 13.5 12.9 96 1014.3 11.4 S 14.5 0.0 4.3
21:40 13.5 12.9 96 1014.0 11.4 S 14.5 0.0 4.3
21:41 13.5 12.9 96 1014.1 9.2 WSW 14.5 0.0 4.3
21:42 13.5 12.9 96 1014.2 14.5 SW 14.5 0.0 4.3
21:43 13.5 12.9 96 1014.1 9.8 SW 14.5 0.0 4.3
21:44 13.5 12.9 96 1014.1 9.8 SW 14.5 0.0 4.3
21:45 13.5 12.9 96 1014.3 9.8 SW 14.5 0.0 4.3
21:46 13.5 12.9 96 1014.2 9.2 S 14.5 0.0 4.3
21:47 13.6 13.0 96 1014.1 8.3 NW 14.5 0.0 4.3
21:48 13.6 13.0 96 1014.1 8.3 SW 14.5 0.0 4.3
21:49 13.6 13.0 96 1014.3 7.6 SW 14.5 0.0 4.3
21:50 13.6 13.0 96 1014.2 9.8 W 14.5 0.0 4.3
21:51 13.6 13.0 96 1014.1 8.3 SW 14.5 0.0 4.3
21:52 13.6 13.0 96 1014.2 6.9 SW 12.1 0.0 4.3
21:53 13.6 13.0 96 1014.2 6.9 SW 9.8 0.0 4.3
21:54 13.6 13.0 96 1014.3 7.6 S 9.8 0.0 4.3
21:55 13.6 13.0 96 1014.3 7.6 W 9.8 0.0 4.3
21:56 13.6 13.0 96 1014.4 13.0 SW 13.0 0.0 4.3
21:57 13.6 13.0 96 1013.9 13.0 SSW 13.0 0.0 4.3
21:58 13.6 13.0 96 1014.2 9.8 SW 13.0 0.0 4.3
21:59 13.6 13.0 96 1014.1 9.2 SW 13.0 0.0 4.3
22:00 13.6 13.0 96 1014.0 13.0 SW 13.0 0.0 4.3
22:01 13.6 13.0 96 1014.4 7.6 WSW 13.0 0.0 4.3
22:02 13.6 13.0 96 1014.3 8.3 SW 13.0 0.0 4.3
22:03 13.6 13.0 96 1014.3 11.4 SW 13.0 0.0 4.3
22:04 13.6 13.0 96 1014.2 13.6 SW 13.6 0.0 4.3
22:05 13.6 13.0 96 1014.4 13.6 NW 13.6 0.0 4.3
22:06 13.6 13.0 96 1014.4 13.6 NW 13.6 0.0 4.3
22:07 13.6 13.0 96 1014.5 9.8 SW 13.6 0.0 4.3
22:08 13.6 13.0 96 1014.3 12.1 SW 13.6 0.0 4.3
22:09 13.6 13.0 96 1014.2 9.8 SW 13.6 0.0 4.3
22:10 13.6 13.0 96 1014.4 7.6 NE 13.6 0.0 4.3
22:11 13.6 13.0 96 1014.5 9.8 SW 13.6 0.0 4.3
22:12 13.6 13.0 96 1014.3 10.7 SW 13.6 0.0 4.3
22:13 13.6 13.0 96 1014.3 10.7 SW 13.6 0.0 4.3
22:14 13.6 13.0 96 1014.4 10.7 SW 13.6 0.0 4.3
22:15 13.6 13.0 96 1014.4 11.4 S 13.6 0.0 4.3
22:16 13.6 13.0 96 1014.5 9.8 SW 12.1 0.0 4.3
22:17 13.5 12.9 96 1014.2 8.3 S 12.1 0.0 4.3
22:18 13.5 12.9 96 1014.3 11.4 S 12.1 0.0 4.3
22:19 13.5 12.9 96 1014.4 11.4 S 12.1 0.0 4.3
22:20 13.5 12.9 96 1014.3 10.7 S 12.1 0.0 4.3
22:21 13.5 12.9 96 1014.5 9.2 S 11.4 0.0 4.3
22:22 13.5 12.9 96 1014.5 9.2 S 11.4 0.0 4.3
22:23 13.5 12.9 96 1014.3 9.2 SW 12.1 0.0 4.3
22:24 13.5 12.9 96 1014.2 6.9 SW 12.1 0.0 4.3
22:25 13.5 12.9 96 1014.4 6.0 S 12.1 0.0 4.3
22:26 13.5 12.9 96 1014.5 9.2 SW 12.1 0.0 4.3
22:27 13.5 12.9 96 1014.2 8.3 SW 12.1 0.0 4.3
22:28 13.5 12.9 96 1014.4 8.3 SW 12.1 0.0 4.3
22:29 13.5 12.9 96 1014.5 9.2 S 12.1 0.0 4.3
22:30 13.5 12.9 96 1014.4 9.2 S 12.1 0.0 4.3
22:31 13.5 12.9 96 1014.3 10.7 SW 12.1 0.0 4.3
22:32 13.5 12.9 96 1014.5 9.8 SW 12.1 0.0 4.3
22:33 13.5 12.9 96 1014.3 9.2 S 10.7 0.0 4.3
22:34 13.5 12.9 96 1014.5 8.3 S 10.7 0.0 4.3
22:35 13.5 12.9 96 1014.4 8.3 NW 10.7 0.0 4.3
22:36 13.5 12.9 96 1014.4 8.3 SW 10.7 0.0 4.3
22:37 13.5 12.9 96 1014.4 8.3 SW 10.7 0.0 4.3
22:38 13.5 12.9 96 1014.4 11.4 SW 11.4 0.0 4.3
22:39 13.5 12.9 96 1014.4 9.2 NW 11.4 0.0 4.3
22:40 13.5 12.9 96 1014.4 6.9 SW 11.4 0.0 4.3
22:41 13.5 12.9 96 1014.5 8.3 SW 11.4 0.0 4.3
22:42 13.5 12.9 96 1014.2 8.3 SW 11.4 0.0 4.3
22:43 13.4 12.8 96 1014.4 7.6 S 11.4 0.0 4.3
22:44 13.4 12.8 96 1014.5 8.3 SW 11.4 0.0 4.3
22:45 13.4 12.8 96 1014.5 9.8 NW 11.4 0.0 4.3
22:46 13.4 12.8 96 1014.4 7.6 SW 11.4 0.0 4.3
22:47 13.4 12.8 96 1014.6 8.3 SW 11.4 0.0 4.3
22:48 13.4 12.8 96 1014.3 9.2 SW 11.4 0.0 4.3
22:49 13.4 12.8 96 1014.3 9.2 SW 9.8 0.0 4.3
22:50 13.4 12.8 96 1014.4 7.6 SW 9.8 0.0 4.3
22:51 13.5 12.9 96 1014.3 8.3 S 9.8 0.0 4.3
22:52 13.5 12.9 96 1014.5 7.6 SW 9.8 0.0 4.3
22:53 13.5 12.9 96 1014.4 9.2 SW 9.8 0.0 4.3
22:54 13.5 12.9 96 1014.3 9.2 WSW 9.8 0.0 4.3
22:55 13.5 12.9 96 1014.5 9.8 SW 9.8 0.0 4.3
22:56 13.5 12.9 96 1014.4 9.8 S 9.8 0.0 4.3
22:57 13.5 12.9 96 1014.3 8.3 SSW 9.8 0.0 4.3
22:58 13.5 12.9 96 1014.2 7.6 S 9.8 0.0 4.3
22:59 13.5 12.9 96 1014.6 11.4 SW 11.4 0.0 4.3
23:00 13.5 12.9 96 1014.4 11.4 S 11.4 0.0 4.3
23:01 13.5 12.9 96 1014.5 11.4 S 11.4 0.0 4.3
23:02 13.5 12.9 96 1014.7 11.4 S 11.4 0.0 4.3
23:03 13.5 12.9 96 1014.2 11.4 S 11.4 0.0 4.3
23:04 13.5 12.9 96 1014.3 11.4 S 11.4 0.0 4.3
23:05 13.5 12.9 96 1014.4 11.4 S 11.4 0.0 4.3
23:06 13.5 12.9 96 1014.4 11.4 S 11.4 0.0 4.3
23:07 13.5 12.9 96 1014.4 13.0 S 13.0 0.0 4.3
23:08 13.5 12.9 96 1014.5 9.2 S 13.0 0.0 4.3
23:09 13.5 12.9 96 1014.5 9.2 S 13.0 0.0 4.3
23:10 13.5 12.9 96 1014.4 9.2 S 13.0 0.0 4.3
23:11 13.5 12.9 96 1014.4 10.7 S 13.0 0.0 4.3
23:12 13.5 12.9 96 1014.3 9.2 SSE 13.0 0.0 4.3
23:13 13.5 12.9 96 1014.7 9.8 S 13.0 0.0 4.3
23:14 13.5 12.9 96 1014.6 11.4 S 13.0 0.0 4.3
23:16 13.5 12.9 96 1014.5 8.3 S 13.0 0.0 4.3
23:17 13.5 12.9 96 1014.7 8.3 SW 13.0 0.0 4.3
23:18 13.5 12.9 96 1014.6 7.6 SW 12.1 0.0 4.3
23:19 13.4 12.8 96 1014.5 8.3 SW 12.1 0.0 4.3
23:20 13.4 12.8 96 1014.5 9.2 SW 12.1 0.0 4.3
23:21 13.4 12.8 96 1014.5 10.7 SW 11.4 0.0 4.3
23:22 13.4 12.8 96 1014.4 9.2 S 11.4 0.0 4.3
23:23 13.4 12.8 96 1014.6 12.1 SW 12.1 0.0 4.3
23:24 13.4 12.8 96 1014.4 8.3 SW 14.5 0.0 4.3
23:25 13.5 12.9 96 1014.5 9.2 NW 14.5 0.0 4.3
23:26 13.5 12.9 96 1014.5 9.8 SW 14.5 0.0 4.3
23:27 13.5 12.9 96 1014.2 9.2 SW 14.5 0.0 4.3
23:28 13.5 12.9 96 1014.6 9.2 SW 14.5 0.0 4.3
23:29 13.5 12.9 96 1014.6 7.6 S 14.5 0.0 4.3
23:30 13.5 12.9 96 1014.5 9.2 S 14.5 0.0 4.3
23:31 13.5 12.9 96 1014.4 7.6 SW 14.5 0.0 4.3
23:32 13.5 12.9 96 1014.4 8.3 S 14.5 0.0 4.3
23:33 13.5 12.9 96 1014.3 8.3 SW 14.5 0.0 4.3
23:34 13.5 12.9 96 1014.3 7.6 S 14.5 0.0 4.3
23:35 13.5 12.9 96 1014.4 9.8 S 9.8 0.0 4.3
23:36 13.5 12.9 96 1014.4 9.8 S 9.8 0.0 4.3
23:37 13.5 12.9 96 1014.2 7.6 S 11.4 0.0 4.3
23:39 13.5 12.9 96 1014.4 7.6 S 11.4 0.0 4.3
23:40 13.5 12.9 96 1014.4 9.2 SW 11.4 0.0 4.3
23:41 13.5 12.9 96 1014.4 9.2 SW 11.4 0.0 4.3
23:42 13.5 12.9 96 1014.2 9.2 S 11.4 0.0 4.3
23:43 13.5 12.9 96 1014.3 8.3 SW 11.4 0.0 4.3
23:44 13.5 12.9 96 1014.5 12.1 SW 12.1 0.0 4.3
23:45 13.5 12.9 96 1014.6 8.3 SSE 12.1 0.0 4.3
23:46 13.5 13.0 97 1014.4 8.3 WSW 12.1 0.0 4.3
23:47 13.5 13.0 97 1014.5 8.3 SW 12.1 0.0 4.3
23:48 13.5 13.0 97 1014.3 11.4 S 12.1 0.0 4.3
23:49 13.5 13.0 97 1014.3 11.4 S 12.1 0.0 4.3
23:50 13.5 13.0 97 1014.2 8.3 SW 12.1 0.0 4.3
23:51 13.5 13.0 97 1014.3 8.3 SSW 12.1 0.0 4.3
23:52 13.5 13.0 97 1014.4 7.6 W 12.1 0.0 4.3
23:53 13.5 13.0 97 1014.4 8.3 SW 12.1 0.0 4.3
23:54 13.5 13.0 97 1014.5 9.2 S 12.1 0.0 4.3
23:55 13.5 13.0 97 1014.4 7.6 SW 11.4 0.0 4.3
23:56 13.5 13.0 97 1014.3 13.6 SSW 13.6 0.0 4.3
23:57 13.5 13.0 97 1014.4 13.0 SW 13.6 0.0 4.3
23:58 13.5 13.0 97 1014.3 11.4 S 13.6 0.0 4.3
23:59 13.5 13.0 97 1014.3 9.8 SW 13.6 0.0 4.3

 

 

UK - WEATHER STATION TOPSITES - UK World Weather Websites

Copyright © Carnkie Weather 2009 - 2022.